| time (UTC) | temp C | wind direction | speed KPH | gust KPH | rain 1hr cm | rain 24hr cm | rain mn cm | humidity % | barometer mb |
| 20260502162241 | 28 | 113 | 4.8 | 17.7 | 0.00 | 0.00 | 0.00 | 30 | 1014.2 |
| 20260502162122 | 28 | 128 | 8.0 | 17.7 | 0.00 | 0.00 | 0.00 | 30 | 1014.1 |
| 20260502162034 | 28 | 98 | 8.0 | 17.7 | 0.00 | 0.00 | 0.00 | 29 | 1014.2 |
| 20260502161936 | 28 | 110 | 6.4 | 22.5 | 0.00 | 0.00 | 0.00 | 29 | 1014.1 |
| 20260502161823 | 28 | 104 | 8.0 | 22.5 | 0.00 | 0.00 | 0.00 | 30 | 1014.1 |
| 20260502161722 | 28 | 58 | 6.4 | 22.5 | 0.00 | 0.00 | 0.00 | 29 | 1014.2 |
| 20260502161651 | 28 | 68 | 3.2 | 22.5 | 0.00 | 0.00 | 0.00 | 30 | 1014.1 |
| 20260502161539 | 28 | 65 | 1.6 | 22.5 | 0.00 | 0.00 | 0.00 | 30 | 1014.1 |
| 20260502161420 | 28 | 108 | 3.2 | 22.5 | 0.00 | 0.00 | 0.00 | 29 | 1014.2 |
| 20260502161322 | 28 | 74 | 4.8 | 22.5 | 0.00 | 0.00 | 0.00 | 30 | 1014.1 |
| 20260502161228 | 28 | 70 | 6.4 | 22.5 | 0.00 | 0.00 | 0.00 | 30 | 1014.1 |
| 20260502161134 | 28 | 84 | 3.2 | 19.3 | 0.00 | 0.00 | 0.00 | 30 | 1014.1 |
| 20260502161015 | 28 | 72 | 1.6 | 16.1 | 0.00 | 0.00 | 0.00 | 29 | 1014.1 |
| 20260502160916 | 28 | 98 | 3.2 | 22.5 | 0.00 | 0.00 | 0.00 | 30 | 1014.1 |
| 20260502160826 | 28 | 86 | 4.8 | 22.5 | 0.00 | 0.00 | 0.00 | 29 | 1014.1 |
| 20260502160728 | 28 | 103 | 3.2 | 22.5 | 0.00 | 0.00 | 0.00 | 29 | 1014.1 |
| 20260502160657 | 28 | 96 | 1.6 | 22.5 | 0.00 | 0.00 | 0.00 | 30 | 1014.1 |
| 20260502160522 | 28 | 91 | 0.0 | 22.5 | 0.00 | 0.00 | 0.00 | 29 | 1014.0 |
| 20260502160425 | 28 | 91 | 0.0 | 22.5 | 0.00 | 0.00 | 0.00 | 30 | 1014.0 |
| 20260502160327 | 28 | 93 | 6.4 | 22.5 | 0.00 | 0.00 | 0.00 | 29 | 1014.1 |
| 20260502160233 | 28 | 93 | 8.0 | 22.5 | 0.00 | 0.00 | 0.00 | 30 | 1014.1 |
| 20260502160144 | 28 | 91 | 4.8 | 22.5 | 0.00 | 0.00 | 0.00 | 30 | 1014.1 |
| 20260502152331 | 26 | 75 | 0.0 | 1.6 | 0.00 | 0.00 | 0.00 | 25 | 1013.8 |
| 20260502152233 | 26 | 72 | 0.0 | 1.6 | 0.00 | 0.00 | 0.00 | 25 | 1013.8 |
| 20260502152203 | 26 | 58 | 0.0 | 1.6 | 0.00 | 0.00 | 0.00 | 26 | 1013.8 |
| 20260502152023 | 26 | 57 | 0.0 | 1.6 | 0.00 | 0.00 | 0.00 | 26 | 1013.7 |
| 20260502151925 | 26 | 57 | 0.0 | 1.6 | 0.00 | 0.00 | 0.00 | 25 | 1013.8 |
| 20260502151830 | 26 | 57 | 0.0 | 1.6 | 0.00 | 0.00 | 0.00 | 25 | 1013.8 |
| 20260502151739 | 26 | 57 | 0.0 | 1.6 | 0.00 | 0.00 | 0.00 | 26 | 1013.8 |
| 20260502151639 | 26 | 57 | 0.0 | 0.0 | 0.00 | 0.00 | 0.00 | 26 | 1013.7 |
| 20260502151527 | 26 | 57 | 0.0 | 0.0 | 0.00 | 0.00 | 0.00 | 26 | 1013.8 |
| 20260502151429 | 26 | 57 | 0.0 | 0.0 | 0.00 | 0.00 | 0.00 | 26 | 1013.8 |
| 20260502151331 | 26 | 57 | 0.0 | 0.0 | 0.00 | 0.00 | 0.00 | 26 | 1013.8 |
| 20260502151301 | 26 | 57 | 0.0 | 0.0 | 0.00 | 0.00 | 0.00 | 26 | 1013.8 |
| 20260502151024 | 25 | 56 | 0.0 | 0.0 | 0.00 | 0.00 | 0.00 | 26 | 1013.7 |
| 20260502150932 | 25 | 55 | 0.0 | 0.0 | 0.00 | 0.00 | 0.00 | 26 | 1013.8 |
| 20260502150834 | 25 | 54 | 0.0 | 0.0 | 0.00 | 0.00 | 0.00 | 26 | 1013.8 |
| 20260502150716 | 25 | 54 | 0.0 | 0.0 | 0.00 | 0.00 | 0.00 | 26 | 1013.8 |
| 20260502150618 | 25 | 53 | 0.0 | 0.0 | 0.00 | 0.00 | 0.00 | 26 | 1013.7 |
| 20260502150527 | 25 | 53 | 0.0 | 0.0 | 0.00 | 0.00 | 0.00 | 25 | 1013.7 |
| 20260502150433 | 25 | 53 | 0.0 | 0.0 | 0.00 | 0.00 | 0.00 | 25 | 1013.7 |
| 20260502150315 | 25 | 53 | 0.0 | 0.0 | 0.00 | 0.00 | 0.00 | 27 | 1013.7 |
| 20260502150216 | 25 | 53 | 0.0 | 0.0 | 0.00 | 0.00 | 0.00 | 26 | 1013.7 |
| 20260502150145 | 25 | 53 | 0.0 | 1.6 | 0.00 | 0.00 | 0.00 | 27 | 1013.7 |
| 20260502150105 | 25 | 53 | 0.0 | 1.6 | 0.00 | 0.00 | 0.00 | 27 | 1013.7 |
| 20260502140128 | 20 | 46 | 0.0 | 0.0 | 0.00 | 0.00 | 0.00 | 38 | 1013.2 |
| 20260502130622 | 18 | 360 | 0.0 | 0.0 | 0.00 | 0.00 | 0.00 | 39 | 1012.3 |
| 20260502130523 | 17 | 360 | 0.0 | 0.0 | 0.00 | 0.00 | 0.00 | 40 | 1012.3 |
| 20260502130424 | 17 | 360 | 0.0 | 0.0 | 0.00 | 0.00 | 0.00 | 39 | 1012.2 |
| 20260502130334 | 17 | 360 | 0.0 | 0.0 | 0.00 | 0.00 | 0.00 | 39 | 1012.2 |
| 20260502130235 | 17 | 62 | 0.0 | 0.0 | 0.00 | 0.00 | 0.00 | 38 | 1012.2 |
| 20260502130120 | 17 | 58 | 0.0 | 0.0 | 0.00 | 0.00 | 0.00 | 38 | 1012.2 |
| 20260502123725 | 17 | 360 | 0.0 | 0.0 | 0.00 | 0.00 | 0.00 | 39 | 1011.8 |
| 20260502123636 | 17 | 360 | 0.0 | 0.0 | 0.00 | 0.00 | 0.00 | 39 | 1011.7 |
| 20260502123521 | 17 | 360 | 0.0 | 0.0 | 0.00 | 0.00 | 0.00 | 39 | 1011.8 |
| 20260502123423 | 17 | 360 | 0.0 | 0.0 | 0.00 | 0.00 | 0.00 | 39 | 1011.7 |
| 20260502123330 | 17 | 360 | 0.0 | 0.0 | 0.00 | 0.00 | 0.00 | 39 | 1011.7 |
| 20260502123233 | 17 | 360 | 0.0 | 0.0 | 0.00 | 0.00 | 0.00 | 39 | 1011.8 |
| 20260502123115 | 17 | 360 | 0.0 | 0.0 | 0.00 | 0.00 | 0.00 | 39 | 1011.7 |
| 20260502123018 | 17 | 360 | 0.0 | 0.0 | 0.00 | 0.00 | 0.00 | 39 | 1011.7 |
| 20260502122931 | 17 | 360 | 0.0 | 0.0 | 0.00 | 0.00 | 0.00 | 39 | 1011.7 |
| 20260502122833 | 17 | 61 | 0.0 | 0.0 | 0.00 | 0.00 | 0.00 | 38 | 1011.7 |
| 20260502122735 | 17 | 360 | 0.0 | 0.0 | 0.00 | 0.00 | 0.00 | 38 | 1011.7 |
| 20260502122616 | 17 | 360 | 0.0 | 0.0 | 0.00 | 0.00 | 0.00 | 38 | 1011.6 |
| 20260502122544 | 17 | 360 | 0.0 | 0.0 | 0.00 | 0.00 | 0.00 | 38 | 1011.7 |
| 20260502122431 | 17 | 360 | 0.0 | 0.0 | 0.00 | 0.00 | 0.00 | 38 | 1011.7 |
| 20260502122333 | 17 | 360 | 0.0 | 0.0 | 0.00 | 0.00 | 0.00 | 37 | 1011.6 |
| 20260502122219 | 18 | 360 | 0.0 | 0.0 | 0.00 | 0.00 | 0.00 | 38 | 1011.6 |
| 20260502122127 | 18 | 360 | 0.0 | 0.0 | 0.00 | 0.00 | 0.00 | 37 | 1011.6 |
| 20260502122049 | 18 | 360 | 0.0 | 0.0 | 0.00 | 0.00 | 0.00 | 37 | 1011.6 |
| 20260502121938 | 17 | 360 | 0.0 | 0.0 | 0.00 | 0.00 | 0.00 | 37 | 1011.6 |
| 20260502121820 | 17 | 360 | 0.0 | 0.0 | 0.00 | 0.00 | 0.00 | 37 | 1011.6 |
| 20260502121722 | 17 | 360 | 0.0 | 0.0 | 0.00 | 0.00 | 0.00 | 37 | 1011.6 |
| 20260502121649 | 17 | 360 | 0.0 | 0.0 | 0.00 | 0.00 | 0.00 | 37 | 1011.6 |
| 20260502121534 | 17 | 360 | 0.0 | 0.0 | 0.00 | 0.00 | 0.00 | 38 | 1011.5 |
| 20260502121417 | 17 | 360 | 0.0 | 0.0 | 0.00 | 0.00 | 0.00 | 37 | 1011.5 |
| 20260502121319 | 17 | 360 | 0.0 | 0.0 | 0.00 | 0.00 | 0.00 | 37 | 1011.5 |
| 20260502121227 | 17 | 360 | 0.0 | 0.0 | 0.00 | 0.00 | 0.00 | 38 | 1011.5 |
| 20260502121157 | 17 | 360 | 0.0 | 0.0 | 0.00 | 0.00 | 0.00 | 38 | 1011.5 |
| 20260502121017 | 18 | 360 | 0.0 | 0.0 | 0.00 | 0.00 | 0.00 | 38 | 1011.6 |
| 20260502120924 | 18 | 360 | 0.0 | 0.0 | 0.00 | 0.00 | 0.00 | 37 | 1011.5 |
| 20260502120825 | 18 | 360 | 0.0 | 0.0 | 0.00 | 0.00 | 0.00 | 37 | 1011.4 |
| 20260502120734 | 18 | 360 | 0.0 | 0.0 | 0.00 | 0.00 | 0.00 | 37 | 1011.5 |
| 20260502120637 | 18 | 360 | 0.0 | 0.0 | 0.00 | 0.00 | 0.00 | 37 | 1011.5 |
| 20260502120518 | 18 | 360 | 0.0 | 0.0 | 0.00 | 0.00 | 0.00 | 37 | 1011.5 |
| 20260502120426 | 18 | 360 | 0.0 | 0.0 | 0.00 | 0.00 | 0.00 | 38 | 1011.5 |
| 20260502120335 | 18 | 360 | 0.0 | 0.0 | 0.00 | 0.00 | 0.00 | 38 | 1011.4 |
| 20260502120241 | 18 | 360 | 0.0 | 0.0 | 0.00 | 0.00 | 0.00 | 37 | 1011.4 |
| 20260502120121 | 18 | 360 | 0.0 | 0.0 | 0.00 | 0.00 | 0.00 | 37 | 1011.5 |
| 20260502115832 | 18 | 360 | 0.0 | 0.0 | 0.00 | 0.00 | 0.00 | 37 | 1011.4 |
| 20260502115734 | 18 | 360 | 0.0 | 0.0 | 0.00 | 0.00 | 0.00 | 37 | 1011.5 |
| 20260502115616 | 18 | 360 | 0.0 | 0.0 | 0.00 | 0.00 | 0.00 | 37 | 1011.4 |
| 20260502115530 | 18 | 360 | 0.0 | 0.0 | 0.00 | 0.00 | 0.00 | 37 | 1011.4 |
| 20260502115432 | 18 | 360 | 0.0 | 0.0 | 0.00 | 0.00 | 0.00 | 37 | 1011.4 |
| 20260502115333 | 18 | 360 | 0.0 | 0.0 | 0.00 | 0.00 | 0.00 | 37 | 1011.4 |
| 20260502115241 | 18 | 360 | 0.0 | 0.0 | 0.00 | 0.00 | 0.00 | 37 | 1011.4 |
| 20260502115122 | 18 | 360 | 0.0 | 0.0 | 0.00 | 0.00 | 0.00 | 37 | 1011.5 |
| 20260502115024 | 18 | 360 | 0.0 | 0.0 | 0.00 | 0.00 | 0.00 | 36 | 1011.4 |
| 20260502114937 | 18 | 360 | 0.0 | 0.0 | 0.00 | 0.00 | 0.00 | 36 | 1011.5 |
| 20260502114819 | 18 | 360 | 0.0 | 0.0 | 0.00 | 0.00 | 0.00 | 36 | 1011.4 |
| 20260502114721 | 18 | 360 | 0.0 | 0.0 | 0.00 | 0.00 | 0.00 | 37 | 1011.5 |
| 20260502114622 | 18 | 360 | 0.0 | 0.0 | 0.00 | 0.00 | 0.00 | 37 | 1011.4 |
| 20260502114532 | 18 | 360 | 0.0 | 0.0 | 0.00 | 0.00 | 0.00 | 36 | 1011.4 |
| 20260502114434 | 18 | 360 | 0.0 | 0.0 | 0.00 | 0.00 | 0.00 | 36 | 1011.4 |
| 20260502114319 | 18 | 360 | 0.0 | 0.0 | 0.00 | 0.00 | 0.00 | 36 | 1011.4 |
| 20260502114229 | 18 | 360 | 0.0 | 0.0 | 0.00 | 0.00 | 0.00 | 36 | 1011.4 |
| 20260502114131 | 18 | 360 | 0.0 | 0.0 | 0.00 | 0.00 | 0.00 | 36 | 1011.4 |
| 20260502114033 | 18 | 360 | 0.0 | 0.0 | 0.00 | 0.00 | 0.00 | 36 | 1011.3 |
| 20260502113921 | 18 | 360 | 0.0 | 0.0 | 0.00 | 0.00 | 0.00 | 36 | 1011.4 |
| 20260502113822 | 18 | 360 | 0.0 | 0.0 | 0.00 | 0.00 | 0.00 | 35 | 1011.3 |
| 20260502113731 | 18 | 360 | 0.0 | 0.0 | 0.00 | 0.00 | 0.00 | 36 | 1011.3 |
| 20260502113616 | 18 | 360 | 0.0 | 0.0 | 0.00 | 0.00 | 0.00 | 35 | 1011.4 |
| 20260502113517 | 18 | 360 | 0.0 | 0.0 | 0.00 | 0.00 | 0.00 | 36 | 1011.4 |
| 20260502113424 | 18 | 360 | 0.0 | 0.0 | 0.00 | 0.00 | 0.00 | 35 | 1011.3 |
| 20260502113347 | 18 | 360 | 0.0 | 0.0 | 0.00 | 0.00 | 0.00 | 36 | 1011.3 |
| 20260502113233 | 18 | 360 | 0.0 | 0.0 | 0.00 | 0.00 | 0.00 | 36 | 1011.3 |
| 20260502113133 | 18 | 360 | 0.0 | 0.0 | 0.00 | 0.00 | 0.00 | 35 | 1011.4 |
| 20260502113019 | 18 | 360 | 0.0 | 0.0 | 0.00 | 0.00 | 0.00 | 35 | 1011.3 |
| 20260502112921 | 18 | 360 | 0.0 | 0.0 | 0.00 | 0.00 | 0.00 | 36 | 1011.3 |
| 20260502112831 | 18 | 360 | 0.0 | 0.0 | 0.00 | 0.00 | 0.00 | 35 | 1011.3 |
| 20260502112733 | 18 | 360 | 0.0 | 0.0 | 0.00 | 0.00 | 0.00 | 36 | 1011.3 |
| 20260502112642 | 18 | 360 | 0.0 | 0.0 | 0.00 | 0.00 | 0.00 | 35 | 1011.3 |
| 20260502112543 | 18 | 360 | 0.0 | 0.0 | 0.00 | 0.00 | 0.00 | 35 | 1011.3 |
| 20260502112423 | 18 | 360 | 0.0 | 0.0 | 0.00 | 0.00 | 0.00 | 35 | 1011.2 |
| 20260502112335 | 18 | 360 | 0.0 | 0.0 | 0.00 | 0.00 | 0.00 | 35 | 1011.3 |
| 20260502112217 | 18 | 360 | 0.0 | 0.0 | 0.00 | 0.00 | 0.00 | 35 | 1011.2 |
| 20260502112119 | 18 | 360 | 0.0 | 0.0 | 0.00 | 0.00 | 0.00 | 35 | 1011.3 |
| 20260502112048 | 18 | 360 | 0.0 | 0.0 | 0.00 | 0.00 | 0.00 | 36 | 1011.3 |
| 20260502111929 | 18 | 360 | 0.0 | 0.0 | 0.00 | 0.00 | 0.00 | 36 | 1011.2 |
| 20260502111831 | 18 | 360 | 0.0 | 0.0 | 0.00 | 0.00 | 0.00 | 36 | 1011.2 |
| 20260502111716 | 18 | 360 | 0.0 | 0.0 | 0.00 | 0.00 | 0.00 | 36 | 1011.1 |
| 20260502111626 | 18 | 360 | 0.0 | 0.0 | 0.00 | 0.00 | 0.00 | 36 | 1011.1 |
| 20260502111528 | 18 | 360 | 0.0 | 0.0 | 0.00 | 0.00 | 0.00 | 36 | 1011.2 |
| 20260502111431 | 18 | 360 | 0.0 | 0.0 | 0.00 | 0.00 | 0.00 | 36 | 1011.2 |
| 20260502111400 | 18 | 360 | 0.0 | 0.0 | 0.00 | 0.00 | 0.00 | 36 | 1011.2 |
| 20260502111118 | 18 | 360 | 0.0 | 0.0 | 0.00 | 0.00 | 0.00 | 36 | 1011.2 |
| 20260502111031 | 18 | 360 | 0.0 | 0.0 | 0.00 | 0.00 | 0.00 | 36 | 1011.1 |
| 20260502110933 | 19 | 360 | 0.0 | 0.0 | 0.00 | 0.00 | 0.00 | 36 | 1011.1 |
| 20260502110903 | 19 | 360 | 0.0 | 0.0 | 0.00 | 0.00 | 0.00 | 35 | 1011.1 |
| 20260502110722 | 19 | 360 | 0.0 | 0.0 | 0.00 | 0.00 | 0.00 | 35 | 1011.1 |
| 20260502110625 | 19 | 360 | 0.0 | 0.0 | 0.00 | 0.00 | 0.00 | 35 | 1011.2 |
| 20260502110528 | 19 | 360 | 0.0 | 0.0 | 0.00 | 0.00 | 0.00 | 35 | 1011.1 |
| 20260502110437 | 19 | 360 | 0.0 | 0.0 | 0.00 | 0.00 | 0.00 | 35 | 1011.1 |
| 20260502110323 | 19 | 360 | 0.0 | 0.0 | 0.00 | 0.00 | 0.00 | 35 | 1011.1 |
| 20260502110225 | 19 | 360 | 0.0 | 0.0 | 0.00 | 0.00 | 0.00 | 35 | 1011.1 |
| 20260502110127 | 19 | 360 | 0.0 | 0.0 | 0.00 | 0.00 | 0.00 | 35 | 1011.1 |
| 20260502110026 | 19 | 360 | 0.0 | 0.0 | 0.00 | 0.00 | 0.00 | 35 | 1011.1 |
| 20260502105918 | 19 | 360 | 0.0 | 0.0 | 0.00 | 0.00 | 0.00 | 35 | 1011.1 |
| 20260502105847 | 19 | 360 | 0.0 | 0.0 | 0.00 | 0.00 | 0.00 | 35 | 1011.2 |
| 20260502105731 | 19 | 360 | 0.0 | 0.0 | 0.00 | 0.00 | 0.00 | 35 | 1011.2 |
| 20260502105641 | 19 | 360 | 0.0 | 0.0 | 0.00 | 0.00 | 0.00 | 36 | 1011.2 |
| 20260502105543 | 19 | 360 | 0.0 | 0.0 | 0.00 | 0.00 | 0.00 | 36 | 1011.1 |
| 20260502105425 | 18 | 360 | 0.0 | 0.0 | 0.00 | 0.00 | 0.00 | 36 | 1011.1 |
| 20260502105334 | 19 | 360 | 0.0 | 0.0 | 0.00 | 0.00 | 0.00 | 36 | 1011.2 |
| 20260502105236 | 19 | 360 | 0.0 | 0.0 | 0.00 | 0.00 | 0.00 | 36 | 1011.1 |
| 20260502105121 | 19 | 360 | 0.0 | 0.0 | 0.00 | 0.00 | 0.00 | 36 | 1011.1 |
| 20260502105023 | 19 | 360 | 0.0 | 0.0 | 0.00 | 0.00 | 0.00 | 36 | 1011.2 |
| 20260502104932 | 19 | 360 | 0.0 | 0.0 | 0.00 | 0.00 | 0.00 | 36 | 1011.1 |
| 20260502104833 | 19 | 360 | 0.0 | 0.0 | 0.00 | 0.00 | 0.00 | 36 | 1011.1 |
| 20260502104734 | 19 | 360 | 0.0 | 0.0 | 0.00 | 0.00 | 0.00 | 36 | 1011.1 |
| 20260502104616 | 19 | 360 | 0.0 | 0.0 | 0.00 | 0.00 | 0.00 | 36 | 1011.1 |
| 20260502104530 | 19 | 360 | 0.0 | 0.0 | 0.00 | 0.00 | 0.00 | 36 | 1011.3 |
| 20260502104432 | 19 | 360 | 0.0 | 0.0 | 0.00 | 0.00 | 0.00 | 36 | 1011.3 |
| 20260502104342 | 19 | 360 | 0.0 | 0.0 | 0.00 | 0.00 | 0.00 | 36 | 1011.3 |
| 20260502104224 | 19 | 360 | 0.0 | 0.0 | 0.00 | 0.00 | 0.00 | 36 | 1011.3 |
| 20260502104126 | 19 | 360 | 0.0 | 0.0 | 0.00 | 0.00 | 0.00 | 36 | 1011.2 |
| 20260502104028 | 19 | 360 | 0.0 | 0.0 | 0.00 | 0.00 | 0.00 | 36 | 1011.2 |
| 20260502103942 | 19 | 360 | 0.0 | 0.0 | 0.00 | 0.00 | 0.00 | 36 | 1011.2 |
| 20260502103823 | 19 | 360 | 0.0 | 0.0 | 0.00 | 0.00 | 0.00 | 36 | 1011.3 |
| 20260502103745 | 19 | 360 | 0.0 | 0.0 | 0.00 | 0.00 | 0.00 | 36 | 1011.3 |
| 20260502103653 | 18 | 360 | 0.0 | 0.0 | 0.00 | 0.00 | 0.00 | 36 | 1011.3 |
| 20260502103602 | 18 | 360 | 0.0 | 0.0 | 0.00 | 0.00 | 0.00 | 36 | 1011.3 |
| 20260502103423 | 19 | 360 | 0.0 | 0.0 | 0.00 | 0.00 | 0.00 | 35 | 1011.4 |
| 20260502103325 | 19 | 360 | 0.0 | 0.0 | 0.00 | 0.00 | 0.00 | 35 | 1011.4 |
| 20260502103230 | 19 | 360 | 0.0 | 0.0 | 0.00 | 0.00 | 0.00 | 35 | 1011.3 |
| 20260502103142 | 19 | 360 | 0.0 | 0.0 | 0.00 | 0.00 | 0.00 | 35 | 1011.3 |
| 20260502103022 | 19 | 360 | 0.0 | 0.0 | 0.00 | 0.00 | 0.00 | 35 | 1011.3 |
| 20260502102924 | 19 | 360 | 0.0 | 0.0 | 0.00 | 0.00 | 0.00 | 35 | 1011.3 |
| 20260502102853 | 19 | 360 | 0.0 | 0.0 | 0.00 | 0.00 | 0.00 | 35 | 1011.3 |
| 20260502102802 | 19 | 360 | 0.0 | 0.0 | 0.00 | 0.00 | 0.00 | 35 | 1011.3 |
| 20260502102621 | 19 | 360 | 0.0 | 0.0 | 0.00 | 0.00 | 0.00 | 35 | 1011.3 |
| 20260502102552 | 19 | 360 | 0.0 | 0.0 | 0.00 | 0.00 | 0.00 | 35 | 1011.3 |
| 20260502102455 | 19 | 360 | 0.0 | 0.0 | 0.00 | 0.00 | 0.00 | 35 | 1011.2 |
| 20260502102321 | 19 | 360 | 0.0 | 0.0 | 0.00 | 0.00 | 0.00 | 35 | 1011.2 |
| 20260502102221 | 19 | 360 | 0.0 | 0.0 | 0.00 | 0.00 | 0.00 | 35 | 1011.3 |
| 20260502102130 | 19 | 360 | 0.0 | 0.0 | 0.00 | 0.00 | 0.00 | 35 | 1011.3 |
| 20260502102031 | 19 | 360 | 0.0 | 0.0 | 0.00 | 0.00 | 0.00 | 35 | 1011.2 |
| 20260502101940 | 19 | 360 | 0.0 | 0.0 | 0.00 | 0.00 | 0.00 | 35 | 1011.2 |
| 20260502101822 | 19 | 360 | 0.0 | 0.0 | 0.00 | 0.00 | 0.00 | 35 | 1011.3 |
| 20260502101728 | 19 | 360 | 0.0 | 0.0 | 0.00 | 0.00 | 0.00 | 35 | 1011.2 |
| 20260502101656 | 19 | 360 | 0.0 | 0.0 | 0.00 | 0.00 | 0.00 | 35 | 1011.2 |
| 20260502101516 | 19 | 360 | 0.0 | 0.0 | 0.00 | 0.00 | 0.00 | 35 | 1011.2 |
| 20260502101417 | 19 | 60 | 0.0 | 0.0 | 0.00 | 0.00 | 0.00 | 35 | 1011.1 |
| 20260502101329 | 19 | 59 | 0.0 | 0.0 | 0.00 | 0.00 | 0.00 | 35 | 1011.2 |
| 20260502101229 | 19 | 58 | 0.0 | 0.0 | 0.00 | 0.00 | 0.00 | 35 | 1011.2 |
| 20260502101115 | 19 | 58 | 0.0 | 0.0 | 0.00 | 0.00 | 0.00 | 35 | 1011.1 |
| 20260502101044 | 19 | 58 | 0.0 | 0.0 | 0.00 | 0.00 | 0.00 | 35 | 1011.1 |
| 20260502100925 | 19 | 58 | 0.0 | 0.0 | 0.00 | 0.00 | 0.00 | 34 | 1011.1 |
| 20260502100833 | 19 | 58 | 0.0 | 0.0 | 0.00 | 0.00 | 0.00 | 34 | 1011.1 |
| 20260502100734 | 19 | 58 | 0.0 | 0.0 | 0.00 | 0.00 | 0.00 | 34 | 1011.2 |
| 20260502100637 | 19 | 57 | 0.0 | 0.0 | 0.00 | 0.00 | 0.00 | 34 | 1011.1 |
| 20260502100517 | 19 | 57 | 0.0 | 0.0 | 0.00 | 0.00 | 0.00 | 34 | 1011.1 |
| 20260502100424 | 19 | 57 | 0.0 | 0.0 | 0.00 | 0.00 | 0.00 | 33 | 1011.0 |
| 20260502100329 | 19 | 57 | 0.0 | 0.0 | 0.00 | 0.00 | 0.00 | 33 | 1011.1 |
| 20260502100240 | 19 | 57 | 0.0 | 0.0 | 0.00 | 0.00 | 0.00 | 33 | 1011.1 |
| 20260502100141 | 20 | 57 | 0.0 | 0.0 | 0.00 | 0.00 | 0.00 | 33 | 1011.1 |
| 20260502091424 | 21 | 56 | 0.0 | 0.0 | 0.00 | 0.00 | 0.00 | 29 | 1010.7 |
| 20260502091326 | 21 | 56 | 0.0 | 0.0 | 0.00 | 0.00 | 0.00 | 29 | 1010.7 |
| 20260502091235 | 21 | 56 | 0.0 | 0.0 | 0.00 | 0.00 | 0.00 | 28 | 1010.7 |
| 20260502091121 | 21 | 56 | 0.0 | 0.0 | 0.00 | 0.00 | 0.00 | 28 | 1010.6 |
| 20260502091022 | 21 | 56 | 0.0 | 0.0 | 0.00 | 0.00 | 0.00 | 28 | 1010.7 |
| 20260502090952 | 21 | 56 | 0.0 | 0.0 | 0.00 | 0.00 | 0.00 | 28 | 1010.7 |
| 20260502090831 | 21 | 56 | 0.0 | 0.0 | 0.00 | 0.00 | 0.00 | 28 | 1010.6 |
| 20260502090740 | 21 | 56 | 0.0 | 0.0 | 0.00 | 0.00 | 0.00 | 28 | 1010.6 |
| 20260502090621 | 21 | 56 | 0.0 | 0.0 | 0.00 | 0.00 | 0.00 | 28 | 1010.6 |
| 20260502090543 | 21 | 56 | 0.0 | 0.0 | 0.00 | 0.00 | 0.00 | 28 | 1010.7 |
| 20260502090455 | 21 | 56 | 0.0 | 0.0 | 0.00 | 0.00 | 0.00 | 28 | 1010.6 |
| 20260502090343 | 21 | 56 | 0.0 | 0.0 | 0.00 | 0.00 | 0.00 | 28 | 1010.6 |
| 20260502090224 | 21 | 56 | 0.0 | 0.0 | 0.00 | 0.00 | 0.00 | 28 | 1010.6 |
| 20260502090152 | 21 | 56 | 0.0 | 0.0 | 0.00 | 0.00 | 0.00 | 28 | 1010.6 |
| 20260502071533 | 23 | 256 | 0.0 | 0.0 | 0.00 | 0.00 | 0.00 | 24 | 1009.7 |
| 20260502071421 | 23 | 256 | 0.0 | 0.0 | 0.00 | 0.00 | 0.00 | 24 | 1009.8 |
| 20260502071323 | 23 | 256 | 0.0 | 0.0 | 0.00 | 0.00 | 0.00 | 23 | 1009.7 |
| 20260502071226 | 23 | 256 | 0.0 | 0.0 | 0.00 | 0.00 | 0.00 | 24 | 1009.6 |
| 20260502071133 | 23 | 256 | 0.0 | 0.0 | 0.00 | 0.00 | 0.00 | 24 | 1009.7 |
| 20260502071018 | 23 | 256 | 0.0 | 0.0 | 0.00 | 0.00 | 0.00 | 24 | 1009.6 |
| 20260502070920 | 23 | 256 | 0.0 | 0.0 | 0.00 | 0.00 | 0.00 | 24 | 1009.6 |
| 20260502070828 | 23 | 256 | 0.0 | 0.0 | 0.00 | 0.00 | 0.00 | 24 | 1009.6 |
| 20260502070731 | 23 | 256 | 0.0 | 0.0 | 0.00 | 0.00 | 0.00 | 24 | 1009.6 |
| 20260502070634 | 23 | 256 | 0.0 | 0.0 | 0.00 | 0.00 | 0.00 | 24 | 1009.6 |
| 20260502070517 | 23 | 256 | 0.0 | 0.0 | 0.00 | 0.00 | 0.00 | 25 | 1009.6 |
| 20260502070425 | 23 | 256 | 0.0 | 0.0 | 0.00 | 0.00 | 0.00 | 24 | 1009.6 |
| 20260502070331 | 23 | 256 | 0.0 | 0.0 | 0.00 | 0.00 | 0.00 | 25 | 1009.6 |
| 20260502070242 | 23 | 256 | 0.0 | 0.0 | 0.00 | 0.00 | 0.00 | 25 | 1009.6 |
| 20260502070116 | 23 | 256 | 0.0 | 0.0 | 0.00 | 0.00 | 0.00 | 24 | 1009.6 |
| 20260502070035 | 23 | 256 | 0.0 | 0.0 | 0.00 | 0.00 | 0.00 | 24 | 1009.6 |
| 20260502065952 | 23 | 256 | 0.0 | 0.0 | 0.00 | 0.00 | 0.00 | 24 | 1009.6 |
| 20260502065834 | 23 | 256 | 0.0 | 0.0 | 0.00 | 0.00 | 0.00 | 24 | 1009.6 |
| 20260502065719 | 23 | 256 | 0.0 | 0.0 | 0.00 | 0.00 | 0.00 | 24 | 1009.6 |
| 20260502065627 | 23 | 256 | 0.0 | 0.0 | 0.00 | 0.00 | 0.00 | 24 | 1009.6 |
| 20260502065536 | 23 | 256 | 0.0 | 0.0 | 0.00 | 0.00 | 0.00 | 24 | 1009.6 |
| 20260502065418 | 23 | 256 | 0.0 | 0.0 | 0.00 | 0.00 | 0.00 | 24 | 1009.6 |
| 20260502065320 | 23 | 256 | 0.0 | 0.0 | 0.00 | 0.00 | 0.00 | 25 | 1009.8 |
| 20260502065220 | 23 | 256 | 0.0 | 0.0 | 0.00 | 0.00 | 0.00 | 24 | 1009.6 |
| 20260502065130 | 23 | 256 | 0.0 | 0.0 | 0.00 | 0.00 | 0.00 | 24 | 1009.7 |
| 20260502065034 | 23 | 256 | 0.0 | 0.0 | 0.00 | 0.00 | 0.00 | 24 | 1009.7 |
| 20260502064915 | 23 | 256 | 0.0 | 0.0 | 0.00 | 0.00 | 0.00 | 25 | 1009.7 |
| 20260502064844 | 23 | 256 | 0.0 | 0.0 | 0.00 | 0.00 | 0.00 | 24 | 1009.8 |
| 20260502064726 | 23 | 256 | 0.0 | 0.0 | 0.00 | 0.00 | 0.00 | 24 | 1009.9 |
| 20260502064635 | 23 | 256 | 0.0 | 0.0 | 0.00 | 0.00 | 0.00 | 24 | 1009.9 |
| 20260502064516 | 23 | 256 | 0.0 | 0.0 | 0.00 | 0.00 | 0.00 | 24 | 1010.0 |
| 20260502064423 | 23 | 256 | 0.0 | 0.0 | 0.00 | 0.00 | 0.00 | 24 | 1009.9 |
| 20260502064324 | 23 | 256 | 0.0 | 0.0 | 0.00 | 0.00 | 0.00 | 24 | 1009.8 |
| 20260502064233 | 23 | 256 | 0.0 | 0.0 | 0.00 | 0.00 | 0.00 | 24 | 1009.8 |
| 20260502064135 | 23 | 256 | 0.0 | 0.0 | 0.00 | 0.00 | 0.00 | 24 | 1009.9 |
| 20260502064044 | 23 | 256 | 0.0 | 0.0 | 0.00 | 0.00 | 0.00 | 24 | 1009.9 |
| 20260502063923 | 23 | 256 | 0.0 | 0.0 | 0.00 | 0.00 | 0.00 | 24 | 1010.0 |
| 20260502063832 | 23 | 256 | 0.0 | 0.0 | 0.00 | 0.00 | 0.00 | 24 | 1009.9 |
| 20260502063719 | 23 | 256 | 0.0 | 0.0 | 0.00 | 0.00 | 0.00 | 24 | 1009.9 |
| 20260502063620 | 23 | 256 | 0.0 | 0.0 | 0.00 | 0.00 | 0.00 | 24 | 1009.8 |
| 20260502063549 | 23 | 256 | 0.0 | 0.0 | 0.00 | 0.00 | 0.00 | 24 | 1009.8 |
| 20260502063429 | 23 | 256 | 0.0 | 0.0 | 0.00 | 0.00 | 0.00 | 24 | 1009.8 |
| 20260502063338 | 23 | 256 | 0.0 | 0.0 | 0.00 | 0.00 | 0.00 | 24 | 1009.8 |
| 20260502063219 | 24 | 256 | 0.0 | 0.0 | 0.00 | 0.00 | 0.00 | 24 | 1009.8 |
| 20260502063121 | 24 | 256 | 0.0 | 0.0 | 0.00 | 0.00 | 0.00 | 24 | 1009.9 |
| 20260502063033 | 24 | 256 | 0.0 | 0.0 | 0.00 | 0.00 | 0.00 | 24 | 1009.8 |
| 20260502062954 | 24 | 256 | 0.0 | 0.0 | 0.00 | 0.00 | 0.00 | 23 | 1009.8 |
| 20260502062816 | 24 | 256 | 0.0 | 0.0 | 0.00 | 0.00 | 0.00 | 24 | 1009.8 |
| 20260502062725 | 24 | 256 | 0.0 | 0.0 | 0.00 | 0.00 | 0.00 | 24 | 1009.8 |
| 20260502062627 | 24 | 256 | 0.0 | 0.0 | 0.00 | 0.00 | 0.00 | 24 | 1009.8 |
| 20260502062527 | 24 | 256 | 0.0 | 0.0 | 0.00 | 0.00 | 0.00 | 24 | 1009.8 |
| 20260502062421 | 24 | 256 | 0.0 | 0.0 | 0.00 | 0.00 | 0.00 | 24 | 1009.8 |
| 20260502062323 | 23 | 256 | 0.0 | 0.0 | 0.00 | 0.00 | 0.00 | 24 | 1009.8 |
| 20260502062226 | 23 | 256 | 0.0 | 0.0 | 0.00 | 0.00 | 0.00 | 24 | 1009.7 |
| 20260502062135 | 23 | 256 | 0.0 | 0.0 | 0.00 | 0.00 | 0.00 | 25 | 1009.8 |
| 20260502062057 | 23 | 256 | 0.0 | 0.0 | 0.00 | 0.00 | 0.00 | 25 | 1009.8 |
| 20260502061944 | 23 | 256 | 0.0 | 0.0 | 0.00 | 0.00 | 0.00 | 25 | 1009.8 |
| 20260502061825 | 23 | 256 | 0.0 | 0.0 | 0.00 | 0.00 | 0.00 | 25 | 1009.8 |
| 20260502061731 | 23 | 256 | 0.0 | 0.0 | 0.00 | 0.00 | 0.00 | 26 | 1009.7 |
| 20260502061521 | 23 | 256 | 0.0 | 0.0 | 0.00 | 0.00 | 0.00 | 26 | 1009.7 |
| 20260502061423 | 23 | 256 | 0.0 | 0.0 | 0.00 | 0.00 | 0.00 | 26 | 1009.8 |
| 20260502061232 | 23 | 256 | 0.0 | 0.0 | 0.00 | 0.00 | 0.00 | 26 | 1009.8 |
| 20260502061118 | 23 | 256 | 0.0 | 0.0 | 0.00 | 0.00 | 0.00 | 26 | 1009.7 |
| 20260502061020 | 23 | 256 | 0.0 | 0.0 | 0.00 | 0.00 | 0.00 | 27 | 1009.8 |
| 20260502060922 | 23 | 256 | 0.0 | 0.0 | 0.00 | 0.00 | 0.00 | 27 | 1009.8 |
| 20260502060852 | 23 | 256 | 0.0 | 0.0 | 0.00 | 0.00 | 0.00 | 27 | 1009.8 |
| 20260502060739 | 23 | 256 | 0.0 | 0.0 | 0.00 | 0.00 | 0.00 | 26 | 1009.8 |
| 20260502060620 | 23 | 256 | 0.0 | 0.0 | 0.00 | 0.00 | 0.00 | 27 | 1009.8 |
| 20260502060522 | 23 | 256 | 0.0 | 0.0 | 0.00 | 0.00 | 0.00 | 26 | 1009.7 |
| 20260502060436 | 23 | 256 | 0.0 | 0.0 | 0.00 | 0.00 | 0.00 | 26 | 1009.6 |
| 20260502060319 | 23 | 256 | 0.0 | 0.0 | 0.00 | 0.00 | 0.00 | 27 | 1009.6 |
| 20260502060221 | 23 | 256 | 0.0 | 0.0 | 0.00 | 0.00 | 0.00 | 27 | 1009.6 |
| 20260502060123 | 23 | 256 | 0.0 | 0.0 | 0.00 | 0.00 | 0.00 | 27 | 1009.7 |
| 20260502060044 | 23 | 256 | 0.0 | 0.0 | 0.00 | 0.00 | 0.00 | 28 | 1009.7 |
| 20260502055917 | 23 | 256 | 0.0 | 0.0 | 0.00 | 0.00 | 0.00 | 27 | 1009.6 |
| 20260502055819 | 23 | 256 | 0.0 | 0.0 | 0.00 | 0.00 | 0.00 | 27 | 1009.6 |
| 20260502055728 | 23 | 256 | 0.0 | 0.0 | 0.00 | 0.00 | 0.00 | 27 | 1009.6 |
| 20260502055631 | 23 | 256 | 0.0 | 0.0 | 0.00 | 0.00 | 0.00 | 27 | 1009.6 |
| 20260502055600 | 23 | 256 | 0.0 | 0.0 | 0.00 | 0.00 | 0.00 | 27 | 1009.6 |
| 20260502055421 | 23 | 256 | 0.0 | 0.0 | 0.00 | 0.00 | 0.00 | 27 | 1009.6 |
| 20260502055323 | 23 | 256 | 0.0 | 0.0 | 0.00 | 0.00 | 0.00 | 28 | 1009.6 |
| 20260502055228 | 23 | 256 | 0.0 | 0.0 | 0.00 | 0.00 | 0.00 | 27 | 1009.5 |
| 20260502055137 | 23 | 256 | 0.0 | 0.0 | 0.00 | 0.00 | 0.00 | 27 | 1009.5 |
| 20260502055018 | 23 | 256 | 0.0 | 0.0 | 0.00 | 0.00 | 0.00 | 27 | 1009.5 |
| 20260502054921 | 23 | 256 | 0.0 | 0.0 | 0.00 | 0.00 | 0.00 | 28 | 1009.5 |
| 20260502054823 | 23 | 256 | 0.0 | 0.0 | 0.00 | 0.00 | 0.00 | 28 | 1009.5 |
| 20260502054733 | 23 | 256 | 0.0 | 0.0 | 0.00 | 0.00 | 0.00 | 28 | 1009.5 |
| 20260502054639 | 23 | 256 | 0.0 | 0.0 | 0.00 | 0.00 | 0.00 | 28 | 1009.5 |
| 20260502054519 | 23 | 256 | 0.0 | 0.0 | 0.00 | 0.00 | 0.00 | 28 | 1009.6 |
| 20260502054429 | 23 | 256 | 0.0 | 0.0 | 0.00 | 0.00 | 0.00 | 28 | 1009.5 |
| 20260502054331 | 23 | 256 | 0.0 | 0.0 | 0.00 | 0.00 | 0.00 | 28 | 1009.5 |
| 20260502054234 | 23 | 256 | 0.0 | 0.0 | 0.00 | 0.00 | 0.00 | 27 | 1009.5 |
| 20260502054143 | 23 | 256 | 0.0 | 0.0 | 0.00 | 0.00 | 0.00 | 28 | 1009.5 |
| 20260502054052 | 23 | 256 | 0.0 | 0.0 | 0.00 | 0.00 | 0.00 | 27 | 1009.5 |
| 20260502053917 | 23 | 256 | 0.0 | 0.0 | 0.00 | 0.00 | 0.00 | 27 | 1009.5 |
| 20260502053819 | 23 | 256 | 0.0 | 0.0 | 0.00 | 0.00 | 0.00 | 27 | 1009.5 |
| 20260502053730 | 23 | 256 | 0.0 | 0.0 | 0.00 | 0.00 | 0.00 | 28 | 1009.4 |
| 20260502053632 | 23 | 256 | 0.0 | 0.0 | 0.00 | 0.00 | 0.00 | 27 | 1009.4 |
| 20260502053535 | 23 | 256 | 0.0 | 0.0 | 0.00 | 0.00 | 0.00 | 27 | 1009.5 |
| 20260502053417 | 23 | 256 | 0.0 | 0.0 | 0.00 | 0.00 | 0.00 | 28 | 1009.4 |
| 20260502053329 | 23 | 256 | 0.0 | 0.0 | 0.00 | 0.00 | 0.00 | 27 | 1009.4 |
| 20260502053232 | 23 | 256 | 0.0 | 0.0 | 0.00 | 0.00 | 0.00 | 28 | 1009.4 |
| 20260502053142 | 23 | 256 | 0.0 | 0.0 | 0.00 | 0.00 | 0.00 | 28 | 1009.4 |
| 20260502053024 | 23 | 256 | 0.0 | 0.0 | 0.00 | 0.00 | 0.00 | 28 | 1009.4 |
| 20260502052927 | 23 | 256 | 0.0 | 0.0 | 0.00 | 0.00 | 0.00 | 27 | 1009.4 |
| 20260502052837 | 23 | 256 | 0.0 | 0.0 | 0.00 | 0.00 | 0.00 | 27 | 1009.5 |
| 20260502052723 | 23 | 256 | 0.0 | 0.0 | 0.00 | 0.00 | 0.00 | 27 | 1009.4 |
| 20260502052626 | 23 | 256 | 0.0 | 0.0 | 0.00 | 0.00 | 0.00 | 27 | 1009.5 |
| 20260502052516 | 23 | 256 | 0.0 | 0.0 | 0.00 | 0.00 | 0.00 | 27 | 1009.5 |
| 20260502052437 | 23 | 256 | 0.0 | 0.0 | 0.00 | 0.00 | 0.00 | 27 | 1009.5 |
| 20260502052326 | 23 | 256 | 0.0 | 0.0 | 0.00 | 0.00 | 0.00 | 27 | 1009.4 |
| 20260502052228 | 23 | 256 | 0.0 | 0.0 | 0.00 | 0.00 | 0.00 | 27 | 1009.6 |
| 20260502052131 | 23 | 256 | 0.0 | 0.0 | 0.00 | 0.00 | 0.00 | 26 | 1009.5 |
| 20260502052018 | 23 | 256 | 0.0 | 0.0 | 0.00 | 0.00 | 0.00 | 27 | 1009.5 |
| 20260502051928 | 23 | 256 | 0.0 | 0.0 | 0.00 | 0.00 | 0.00 | 26 | 1009.5 |
| 20260502051830 | 23 | 256 | 0.0 | 0.0 | 0.00 | 0.00 | 0.00 | 26 | 1009.5 |
| 20260502051732 | 23 | 256 | 0.0 | 0.0 | 0.00 | 0.00 | 0.00 | 26 | 1009.5 |
| 20260502051622 | 23 | 256 | 0.0 | 0.0 | 0.00 | 0.00 | 0.00 | 26 | 1009.4 |
| 20260502051523 | 23 | 256 | 0.0 | 0.0 | 0.00 | 0.00 | 0.00 | 26 | 1009.5 |
| 20260502051434 | 23 | 256 | 0.0 | 0.0 | 0.00 | 0.00 | 0.00 | 26 | 1009.5 |
| 20260502051317 | 24 | 256 | 0.0 | 0.0 | 0.00 | 0.00 | 0.00 | 26 | 1009.4 |
| 20260502051226 | 24 | 256 | 0.0 | 0.0 | 0.00 | 0.00 | 0.00 | 27 | 1009.4 |
| 20260502051148 | 24 | 255 | 0.0 | 0.0 | 0.00 | 0.00 | 0.00 | 26 | 1009.4 |
| 20260502051036 | 24 | 255 | 0.0 | 0.0 | 0.00 | 0.00 | 0.00 | 26 | 1009.4 |
| 20260502050919 | 24 | 255 | 0.0 | 0.0 | 0.00 | 0.00 | 0.00 | 27 | 1009.4 |
| 20260502050820 | 24 | 255 | 0.0 | 0.0 | 0.00 | 0.00 | 0.00 | 26 | 1009.2 |
| 20260502050734 | 24 | 255 | 0.0 | 0.0 | 0.00 | 0.00 | 0.00 | 26 | 1009.3 |
| 20260502050702 | 24 | 255 | 0.0 | 0.0 | 0.00 | 0.00 | 0.00 | 26 | 1009.3 |
| 20260502050523 | 24 | 255 | 0.0 | 0.0 | 0.00 | 0.00 | 0.00 | 25 | 1009.2 |
| 20260502050425 | 24 | 256 | 0.0 | 0.0 | 0.00 | 0.00 | 0.00 | 25 | 1009.2 |
| 20260502050335 | 25 | 256 | 0.0 | 0.0 | 0.00 | 0.00 | 0.00 | 25 | 1009.2 |
| 20260502050217 | 25 | 256 | 0.0 | 0.0 | 0.00 | 0.00 | 0.00 | 25 | 1009.2 |
| 20260502050119 | 25 | 256 | 0.0 | 0.0 | 0.00 | 0.00 | 0.00 | 25 | 1009.1 |
| 20260502050042 | 25 | 256 | 0.0 | 0.0 | 0.00 | 0.00 | 0.00 | 25 | 1009.1 |
| 20260502045955 | 24 | 256 | 0.0 | 0.0 | 0.00 | 0.00 | 0.00 | 25 | 1009.1 |
| 20260502045835 | 24 | 256 | 0.0 | 0.0 | 0.00 | 0.00 | 0.00 | 25 | 1009.0 |
| 20260502045717 | 24 | 256 | 0.0 | 0.0 | 0.00 | 0.00 | 0.00 | 25 | 1009.0 |
| 20260502045621 | 24 | 256 | 0.0 | 0.0 | 0.00 | 0.00 | 0.00 | 25 | 1009.0 |
| 20260502045529 | 24 | 256 | 0.0 | 0.0 | 0.00 | 0.00 | 0.00 | 25 | 1009.0 |
| 20260502045431 | 24 | 256 | 0.0 | 0.0 | 0.00 | 0.00 | 0.00 | 25 | 1009.0 |
| 20260502045318 | 25 | 256 | 0.0 | 0.0 | 0.00 | 0.00 | 0.00 | 25 | 1009.0 |
| 20260502045227 | 25 | 256 | 0.0 | 0.0 | 0.00 | 0.00 | 0.00 | 25 | 1008.9 |
| 20260502045130 | 25 | 256 | 0.0 | 0.0 | 0.00 | 0.00 | 0.00 | 26 | 1008.9 |
| 20260502045031 | 25 | 256 | 0.0 | 0.0 | 0.00 | 0.00 | 0.00 | 25 | 1009.0 |
| 20260502044939 | 25 | 256 | 0.0 | 0.0 | 0.00 | 0.00 | 0.00 | 25 | 1009.0 |
| 20260502044826 | 25 | 256 | 0.0 | 0.0 | 0.00 | 0.00 | 0.00 | 25 | 1009.0 |
| 20260502044748 | 25 | 256 | 0.0 | 0.0 | 0.00 | 0.00 | 0.00 | 25 | 1009.0 |
| 20260502044636 | 25 | 256 | 0.0 | 0.0 | 0.00 | 0.00 | 0.00 | 25 | 1009.0 |
| 20260502044519 | 25 | 256 | 0.0 | 0.0 | 0.00 | 0.00 | 0.00 | 24 | 1008.9 |
| 20260502044449 | 25 | 256 | 0.0 | 0.0 | 0.00 | 0.00 | 0.00 | 25 | 1008.9 |
| 20260502044331 | 25 | 256 | 0.0 | 0.0 | 0.00 | 0.00 | 0.00 | 25 | 1009.0 |
| 20260502044234 | 25 | 256 | 0.0 | 0.0 | 0.00 | 0.00 | 0.00 | 25 | 1009.0 |
| 20260502044121 | 25 | 256 | 0.0 | 0.0 | 0.00 | 0.00 | 0.00 | 24 | 1008.9 |
| 20260502044030 | 25 | 256 | 0.0 | 0.0 | 0.00 | 0.00 | 0.00 | 24 | 1008.9 |
| 20260502043933 | 25 | 256 | 0.0 | 0.0 | 0.00 | 0.00 | 0.00 | 24 | 1008.9 |
| 20260502043835 | 25 | 256 | 0.0 | 0.0 | 0.00 | 0.00 | 0.00 | 24 | 1008.9 |
| 20260502043718 | 25 | 256 | 0.0 | 0.0 | 0.00 | 0.00 | 0.00 | 24 | 1009.0 |
| 20260502043648 | 25 | 256 | 0.0 | 0.0 | 0.00 | 0.00 | 0.00 | 24 | 1008.8 |
| 20260502043518 | 25 | 256 | 0.0 | 0.0 | 0.00 | 0.00 | 0.00 | 23 | 1008.9 |
| 20260502043421 | 25 | 256 | 0.0 | 0.0 | 0.00 | 0.00 | 0.00 | 23 | 1008.9 |
| 20260502043324 | 25 | 256 | 0.0 | 0.0 | 0.00 | 0.00 | 0.00 | 23 | 1008.9 |
| 20260502043233 | 25 | 256 | 0.0 | 0.0 | 0.00 | 0.00 | 0.00 | 23 | 1008.9 |
| 20260502043116 | 25 | 256 | 0.0 | 0.0 | 0.00 | 0.00 | 0.00 | 24 | 1008.9 |
| 20260502043018 | 25 | 256 | 0.0 | 0.0 | 0.00 | 0.00 | 0.00 | 24 | 1008.9 |
| 20260502042924 | 25 | 256 | 0.0 | 0.0 | 0.00 | 0.00 | 0.00 | 24 | 1008.9 |
| 20260502042853 | 25 | 256 | 0.0 | 0.0 | 0.00 | 0.00 | 0.00 | 24 | 1008.9 |
| 20260502042734 | 25 | 256 | 0.0 | 0.0 | 0.00 | 0.00 | 0.00 | 25 | 1008.9 |
| 20260502042616 | 26 | 256 | 0.0 | 0.0 | 0.00 | 0.00 | 0.00 | 24 | 1008.9 |
| 20260502042524 | 26 | 256 | 0.0 | 0.0 | 0.00 | 0.00 | 0.00 | 24 | 1008.8 |
| 20260502042425 | 26 | 256 | 0.0 | 0.0 | 0.00 | 0.00 | 0.00 | 24 | 1008.9 |
| 20260502042334 | 26 | 256 | 0.0 | 0.0 | 0.00 | 0.00 | 0.00 | 24 | 1008.8 |
| 20260502042221 | 26 | 256 | 0.0 | 0.0 | 0.00 | 0.00 | 0.00 | 24 | 1008.8 |
| 20260502042124 | 26 | 256 | 0.0 | 0.0 | 0.00 | 0.00 | 0.00 | 24 | 1008.9 |
| 20260502042034 | 26 | 256 | 0.0 | 0.0 | 0.00 | 0.00 | 0.00 | 24 | 1008.9 |
| 20260502041935 | 26 | 256 | 0.0 | 0.0 | 0.00 | 0.00 | 0.00 | 24 | 1008.8 |
| 20260502041838 | 26 | 256 | 0.0 | 0.0 | 0.00 | 0.00 | 0.00 | 24 | 1008.9 |
| 20260502041727 | 26 | 256 | 0.0 | 0.0 | 0.00 | 0.00 | 0.00 | 24 | 1008.9 |
| 20260502041629 | 26 | 256 | 0.0 | 0.0 | 0.00 | 0.00 | 0.00 | 24 | 1008.9 |
| 20260502041541 | 26 | 256 | 0.0 | 0.0 | 0.00 | 0.00 | 0.00 | 24 | 1009.0 |
| 20260502041443 | 26 | 256 | 0.0 | 0.0 | 0.00 | 0.00 | 0.00 | 24 | 1009.0 |
| 20260502041332 | 26 | 256 | 0.0 | 0.0 | 0.00 | 0.00 | 0.00 | 24 | 1008.9 |
| 20260502041234 | 26 | 256 | 0.0 | 0.0 | 0.00 | 0.00 | 0.00 | 24 | 1009.0 |
| 20260502041141 | 26 | 256 | 0.0 | 0.0 | 0.00 | 0.00 | 0.00 | 24 | 1008.9 |
| 20260502041023 | 26 | 256 | 0.0 | 0.0 | 0.00 | 0.00 | 0.00 | 24 | 1009.0 |
| 20260502040930 | 26 | 256 | 0.0 | 0.0 | 0.00 | 0.00 | 0.00 | 24 | 1009.0 |
| 20260502040830 | 26 | 256 | 0.0 | 0.0 | 0.00 | 0.00 | 0.00 | 24 | 1009.0 |
| 20260502040739 | 26 | 256 | 0.0 | 0.0 | 0.00 | 0.00 | 0.00 | 23 | 1009.0 |
| 20260502040621 | 26 | 256 | 0.0 | 0.0 | 0.00 | 0.00 | 0.00 | 22 | 1009.0 |
| 20260502040523 | 26 | 256 | 0.0 | 0.0 | 0.00 | 0.00 | 0.00 | 22 | 1009.0 |
| 20260502040425 | 26 | 256 | 0.0 | 0.0 | 0.00 | 0.00 | 0.00 | 22 | 1008.9 |
| 20260502040316 | 26 | 256 | 0.0 | 0.0 | 0.00 | 0.00 | 0.00 | 22 | 1008.8 |
| 20260502040246 | 26 | 256 | 0.0 | 0.0 | 0.00 | 0.00 | 0.00 | 22 | 1008.8 |
| 20260502040146 | 26 | 256 | 0.0 | 0.0 | 0.00 | 0.00 | 0.00 | 22 | 1008.8 |
| 20260502040048 | 26 | 256 | 0.0 | 0.0 | 0.00 | 0.00 | 0.00 | 22 | 1008.8 |
| 20260502035919 | 26 | 256 | 0.0 | 0.0 | 0.00 | 0.00 | 0.00 | 22 | 1008.8 |
| 20260502035822 | 26 | 256 | 0.0 | 0.0 | 0.00 | 0.00 | 0.00 | 21 | 1008.8 |
| 20260502035732 | 26 | 256 | 0.0 | 0.0 | 0.00 | 0.00 | 0.00 | 21 | 1008.8 |
| 20260502035618 | 26 | 256 | 0.0 | 0.0 | 0.00 | 0.00 | 0.00 | 20 | 1008.8 |
| 20260502035520 | 26 | 256 | 0.0 | 0.0 | 0.00 | 0.00 | 0.00 | 20 | 1008.8 |
| 20260502035429 | 26 | 256 | 0.0 | 0.0 | 0.00 | 0.00 | 0.00 | 20 | 1008.8 |
| 20260502035331 | 26 | 256 | 0.0 | 0.0 | 0.00 | 0.00 | 0.00 | 20 | 1008.8 |
| 20260502035234 | 26 | 256 | 0.0 | 0.0 | 0.00 | 0.00 | 0.00 | 20 | 1008.8 |
| 20260502035143 | 27 | 256 | 0.0 | 0.0 | 0.00 | 0.00 | 0.00 | 19 | 1008.8 |
| 20260502035051 | 27 | 256 | 0.0 | 0.0 | 0.00 | 0.00 | 0.00 | 20 | 1008.9 |
| 20260502034937 | 27 | 256 | 0.0 | 0.0 | 0.00 | 0.00 | 0.00 | 19 | 1008.8 |
| 20260502034818 | 27 | 256 | 0.0 | 0.0 | 0.00 | 0.00 | 0.00 | 19 | 1008.8 |
| 20260502034727 | 27 | 256 | 0.0 | 0.0 | 0.00 | 0.00 | 0.00 | 19 | 1008.9 |
| 20260502034630 | 27 | 256 | 0.0 | 0.0 | 0.00 | 0.00 | 0.00 | 19 | 1008.9 |
| 20260502034533 | 27 | 256 | 0.0 | 0.0 | 0.00 | 0.00 | 0.00 | 19 | 1008.8 |
| 20260502034442 | 27 | 256 | 0.0 | 0.0 | 0.00 | 0.00 | 0.00 | 19 | 1008.8 |
| 20260502034344 | 27 | 256 | 0.0 | 0.0 | 0.00 | 0.00 | 0.00 | 19 | 1008.8 |
| 20260502034237 | 27 | 256 | 0.0 | 0.0 | 0.00 | 0.00 | 0.00 | 19 | 1008.7 |
| 20260502034140 | 27 | 256 | 0.0 | 0.0 | 0.00 | 0.00 | 0.00 | 19 | 1008.8 |
| 20260502034022 | 27 | 256 | 0.0 | 0.0 | 0.00 | 0.00 | 0.00 | 19 | 1008.7 |
| 20260502033951 | 27 | 256 | 0.0 | 0.0 | 0.00 | 0.00 | 0.00 | 19 | 1008.7 |
| 20260502033832 | 27 | 256 | 0.0 | 0.0 | 0.00 | 0.00 | 0.00 | 19 | 1008.7 |
| 20260502033742 | 27 | 256 | 0.0 | 0.0 | 0.00 | 0.00 | 0.00 | 19 | 1008.7 |
| 20260502033629 | 27 | 256 | 0.0 | 0.0 | 0.00 | 0.00 | 0.00 | 19 | 1008.7 |
| 20260502033531 | 27 | 256 | 0.0 | 0.0 | 0.00 | 0.00 | 0.00 | 19 | 1008.6 |
| 20260502033442 | 27 | 256 | 0.0 | 0.0 | 0.00 | 0.00 | 0.00 | 19 | 1008.5 |
| 20260502033342 | 27 | 256 | 0.0 | 0.0 | 0.00 | 0.00 | 0.00 | 19 | 1008.5 |
| 20260502033224 | 27 | 256 | 0.0 | 0.0 | 0.00 | 0.00 | 0.00 | 19 | 1008.5 |
| 20260502033126 | 27 | 256 | 0.0 | 0.0 | 0.00 | 0.00 | 0.00 | 19 | 1008.4 |
| 20260502033039 | 27 | 256 | 0.0 | 0.0 | 0.00 | 0.00 | 0.00 | 19 | 1008.5 |
| 20260502032920 | 27 | 256 | 0.0 | 0.0 | 0.00 | 0.00 | 0.00 | 19 | 1008.4 |
| 20260502032821 | 27 | 256 | 0.0 | 0.0 | 0.00 | 0.00 | 0.00 | 19 | 1008.4 |
| 20260502032752 | 27 | 256 | 0.0 | 0.0 | 0.00 | 0.00 | 0.00 | 19 | 1008.6 |
| 20260502032633 | 27 | 256 | 0.0 | 0.0 | 0.00 | 0.00 | 0.00 | 19 | 1008.6 |
| 20260502032542 | 27 | 256 | 0.0 | 0.0 | 0.00 | 0.00 | 0.00 | 19 | 1008.5 |
| 20260502032424 | 27 | 256 | 0.0 | 0.0 | 0.00 | 0.00 | 0.00 | 19 | 1008.5 |
| 20260502032338 | 28 | 256 | 0.0 | 0.0 | 0.00 | 0.00 | 0.00 | 19 | 1008.4 |
| 20260502032220 | 28 | 256 | 0.0 | 0.0 | 0.00 | 0.00 | 0.00 | 19 | 1008.4 |
| 20260502032123 | 28 | 256 | 0.0 | 0.0 | 0.00 | 0.00 | 0.00 | 18 | 1008.4 |
| 20260502032053 | 28 | 256 | 0.0 | 0.0 | 0.00 | 0.00 | 0.00 | 18 | 1008.4 |
| 20260502031955 | 28 | 256 | 0.0 | 0.0 | 0.00 | 0.00 | 0.00 | 18 | 1008.3 |
| 20260502031816 | 28 | 256 | 0.0 | 0.0 | 0.00 | 0.00 | 0.00 | 18 | 1008.4 |
| 20260502031726 | 28 | 256 | 0.0 | 0.0 | 0.00 | 0.00 | 0.00 | 18 | 1008.4 |
| 20260502031633 | 28 | 256 | 0.0 | 0.0 | 0.00 | 0.00 | 0.00 | 18 | 1008.4 |
| 20260502031534 | 28 | 256 | 0.0 | 0.0 | 0.00 | 0.00 | 0.00 | 18 | 1008.4 |
| 20260502031425 | 28 | 256 | 0.0 | 0.0 | 0.00 | 0.00 | 0.00 | 18 | 1008.4 |
| 20260502031327 | 28 | 256 | 0.0 | 0.0 | 0.00 | 0.00 | 0.00 | 18 | 1008.3 |
| 20260502031230 | 28 | 256 | 0.0 | 0.0 | 0.00 | 0.00 | 0.00 | 18 | 1008.2 |
| 20260502031116 | 28 | 256 | 0.0 | 0.0 | 0.00 | 0.00 | 0.00 | 18 | 1008.3 |
| 20260502031026 | 28 | 256 | 0.0 | 0.0 | 0.00 | 0.00 | 0.00 | 18 | 1008.2 |
| 20260502030949 | 28 | 256 | 0.0 | 0.0 | 0.00 | 0.00 | 0.00 | 18 | 1008.3 |
| 20260502030838 | 28 | 256 | 0.0 | 0.0 | 0.00 | 0.00 | 0.00 | 18 | 1008.3 |
| 20260502030741 | 28 | 256 | 0.0 | 0.0 | 0.00 | 0.00 | 0.00 | 18 | 1008.4 |
| 20260502030648 | 28 | 256 | 0.0 | 0.0 | 0.00 | 0.00 | 0.00 | 18 | 1008.4 |
| 20260502030521 | 28 | 256 | 0.0 | 0.0 | 0.00 | 0.00 | 0.00 | 18 | 1008.4 |
| 20260502030427 | 28 | 256 | 0.0 | 0.0 | 0.00 | 0.00 | 0.00 | 18 | 1008.3 |
| 20260502030337 | 28 | 256 | 0.0 | 0.0 | 0.00 | 0.00 | 0.00 | 18 | 1008.2 |
| 20260502030235 | 28 | 256 | 0.0 | 0.0 | 0.00 | 0.00 | 0.00 | 18 | 1008.1 |
| 20260502030118 | 28 | 256 | 0.0 | 0.0 | 0.00 | 0.00 | 0.00 | 18 | 1008.1 |
| 20260502030032 | 28 | 256 | 0.0 | 0.0 | 0.00 | 0.00 | 0.00 | 18 | 1008.1 |
| 20260502025927 | 28 | 256 | 0.0 | 0.0 | 0.00 | 0.00 | 0.00 | 18 | 1008.2 |
| 20260502025833 | 28 | 256 | 0.0 | 0.0 | 0.00 | 0.00 | 0.00 | 18 | 1008.2 |
| 20260502025715 | 28 | 256 | 0.0 | 0.0 | 0.00 | 0.00 | 0.00 | 18 | 1008.1 |
| 20260502025646 | 28 | 256 | 0.0 | 0.0 | 0.00 | 0.00 | 0.00 | 18 | 1008.2 |
| 20260502025554 | 28 | 256 | 0.0 | 0.0 | 0.00 | 0.00 | 0.00 | 18 | 1008.2 |
| 20260502025416 | 28 | 256 | 0.0 | 0.0 | 0.00 | 0.00 | 0.00 | 18 | 1008.2 |
| 20260502025319 | 28 | 256 | 0.0 | 0.0 | 0.00 | 0.00 | 0.00 | 18 | 1008.2 |
| 20260502025227 | 28 | 256 | 0.0 | 0.0 | 0.00 | 0.00 | 0.00 | 18 | 1008.2 |
| 20260502025133 | 28 | 256 | 0.0 | 0.0 | 0.00 | 0.00 | 0.00 | 18 | 1008.1 |
| 20260502025016 | 28 | 256 | 0.0 | 0.0 | 0.00 | 0.00 | 0.00 | 17 | 1008.1 |
| 20260502024926 | 28 | 256 | 0.0 | 0.0 | 0.00 | 0.00 | 0.00 | 18 | 1008.1 |
| 20260502024827 | 28 | 256 | 0.0 | 0.0 | 0.00 | 0.00 | 0.00 | 18 | 1008.2 |
| 20260502024737 | 28 | 256 | 0.0 | 0.0 | 0.00 | 0.00 | 0.00 | 17 | 1008.1 |
| 20260502024619 | 28 | 256 | 0.0 | 0.0 | 0.00 | 0.00 | 0.00 | 18 | 1008.1 |
| 20260502024521 | 28 | 256 | 0.0 | 0.0 | 0.00 | 0.00 | 0.00 | 18 | 1008.1 |
| 20260502024435 | 28 | 256 | 0.0 | 0.0 | 0.00 | 0.00 | 0.00 | 18 | 1008.1 |
| 20260502024316 | 29 | 256 | 0.0 | 0.0 | 0.00 | 0.00 | 0.00 | 18 | 1008.1 |
| 20260502024246 | 29 | 256 | 0.0 | 0.0 | 0.00 | 0.00 | 0.00 | 18 | 1008.1 |
| 20260502024127 | 29 | 256 | 0.0 | 0.0 | 0.00 | 0.00 | 0.00 | 18 | 1008.0 |
| 20260502024029 | 29 | 256 | 0.0 | 0.0 | 0.00 | 0.00 | 0.00 | 18 | 1008.0 |
| 20260502023939 | 29 | 256 | 0.0 | 0.0 | 0.00 | 0.00 | 0.00 | 18 | 1008.0 |
| 20260502023826 | 29 | 256 | 0.0 | 0.0 | 0.00 | 0.00 | 0.00 | 17 | 1008.0 |
| 20260502023729 | 29 | 256 | 0.0 | 0.0 | 0.00 | 0.00 | 0.00 | 17 | 1008.0 |
| 20260502023632 | 29 | 256 | 0.0 | 0.0 | 0.00 | 0.00 | 0.00 | 17 | 1008.0 |
| 20260502023540 | 29 | 256 | 0.0 | 0.0 | 0.00 | 0.00 | 0.00 | 18 | 1007.9 |
| 20260502023442 | 29 | 256 | 0.0 | 0.0 | 0.00 | 0.00 | 0.00 | 17 | 1007.9 |
| 20260502023323 | 30 | 256 | 0.0 | 0.0 | 0.00 | 0.00 | 0.00 | 17 | 1007.9 |
| 20260502023231 | 30 | 256 | 0.0 | 0.0 | 0.00 | 0.00 | 0.00 | 17 | 1007.9 |
| 20260502023144 | 30 | 256 | 0.0 | 0.0 | 0.00 | 0.00 | 0.00 | 17 | 1007.9 |
| 20260502023026 | 30 | 256 | 0.0 | 0.0 | 0.00 | 0.00 | 0.00 | 17 | 1007.9 |
| 20260502022927 | 30 | 256 | 0.0 | 0.0 | 0.00 | 0.00 | 0.00 | 17 | 1007.9 |
| 20260502022838 | 30 | 256 | 0.0 | 0.0 | 0.00 | 0.00 | 0.00 | 18 | 1007.9 |
| 20260502022718 | 30 | 256 | 0.0 | 0.0 | 0.00 | 0.00 | 0.00 | 17 | 1007.9 |
| 20260502022621 | 30 | 256 | 0.0 | 0.0 | 0.00 | 0.00 | 0.00 | 17 | 1007.9 |
| 20260502022535 | 30 | 256 | 0.0 | 0.0 | 0.00 | 0.00 | 0.00 | 17 | 1007.9 |
| 20260502022418 | 30 | 256 | 0.0 | 0.0 | 0.00 | 0.00 | 0.00 | 18 | 1007.9 |
| 20260502022321 | 30 | 256 | 0.0 | 0.0 | 0.00 | 0.00 | 0.00 | 18 | 1007.8 |
| 20260502022230 | 30 | 256 | 0.0 | 0.0 | 0.00 | 0.00 | 0.00 | 17 | 1007.9 |
| 20260502022134 | 30 | 256 | 0.0 | 0.0 | 0.00 | 0.00 | 0.00 | 17 | 1007.8 |
| 20260502022016 | 30 | 256 | 0.0 | 0.0 | 0.00 | 0.00 | 0.00 | 17 | 1007.7 |
| 20260502021922 | 30 | 256 | 0.0 | 0.0 | 0.00 | 0.00 | 0.00 | 18 | 1007.8 |
| 20260502021832 | 30 | 256 | 0.0 | 0.0 | 0.00 | 0.00 | 0.00 | 18 | 1007.8 |
| 20260502021735 | 30 | 256 | 0.0 | 0.0 | 0.00 | 0.00 | 0.00 | 17 | 1007.8 |
| 20260502021617 | 30 | 256 | 0.0 | 0.0 | 0.00 | 0.00 | 0.00 | 17 | 1007.8 |
| 20260502021520 | 30 | 256 | 0.0 | 0.0 | 0.00 | 0.00 | 0.00 | 18 | 1007.8 |
| 20260502021430 | 30 | 256 | 0.0 | 0.0 | 0.00 | 0.00 | 0.00 | 17 | 1007.8 |
| 20260502021316 | 30 | 256 | 0.0 | 0.0 | 0.00 | 0.00 | 0.00 | 18 | 1007.8 |
| 20260502021219 | 30 | 256 | 0.0 | 0.0 | 0.00 | 0.00 | 0.00 | 18 | 1007.9 |
| 20260502021128 | 30 | 256 | 0.0 | 0.0 | 0.00 | 0.00 | 0.00 | 17 | 1007.9 |
| 20260502021032 | 30 | 256 | 0.0 | 0.0 | 0.00 | 0.00 | 0.00 | 18 | 1007.9 |
| 20260502020934 | 30 | 256 | 0.0 | 0.0 | 0.00 | 0.00 | 0.00 | 18 | 1007.9 |
| 20260502020820 | 30 | 256 | 0.0 | 0.0 | 0.00 | 0.00 | 0.00 | 18 | 1007.9 |
| 20260502020730 | 30 | 256 | 0.0 | 0.0 | 0.00 | 0.00 | 0.00 | 18 | 1007.9 |
| 20260502020632 | 30 | 256 | 0.0 | 0.0 | 0.00 | 0.00 | 0.00 | 18 | 1007.8 |
| 20260502020601 | 30 | 256 | 0.0 | 0.0 | 0.00 | 0.00 | 0.00 | 17 | 1007.8 |
| 20260502020422 | 30 | 256 | 0.0 | 0.0 | 0.00 | 0.00 | 0.00 | 18 | 1007.7 |
| 20260502020325 | 30 | 256 | 0.0 | 0.0 | 0.00 | 0.00 | 0.00 | 18 | 1007.7 |
| 20260502020236 | 30 | 256 | 0.0 | 0.0 | 0.00 | 0.00 | 0.00 | 18 | 1007.7 |
| 20260502020121 | 30 | 256 | 0.0 | 0.0 | 0.00 | 0.00 | 0.00 | 18 | 1007.7 |
| 20260502020034 | 30 | 256 | 0.0 | 0.0 | 0.00 | 0.00 | 0.00 | 17 | 1007.6 |
| 20260502015953 | 30 | 256 | 0.0 | 0.0 | 0.00 | 0.00 | 0.00 | 17 | 1007.6 |
| 20260502015835 | 30 | 256 | 0.0 | 0.0 | 0.00 | 0.00 | 0.00 | 18 | 1007.6 |
| 20260502015717 | 30 | 256 | 0.0 | 0.0 | 0.00 | 0.00 | 0.00 | 17 | 1007.7 |
| 20260502015626 | 30 | 256 | 0.0 | 0.0 | 0.00 | 0.00 | 0.00 | 18 | 1007.6 |
| 20260502015532 | 30 | 256 | 0.0 | 0.0 | 0.00 | 0.00 | 0.00 | 17 | 1007.6 |
| 20260502015440 | 30 | 256 | 0.0 | 0.0 | 0.00 | 0.00 | 0.00 | 18 | 1007.8 |
| 20260502015342 | 31 | 256 | 0.0 | 0.0 | 0.00 | 0.00 | 0.00 | 17 | 1007.7 |
| 20260502015224 | 31 | 256 | 0.0 | 0.0 | 0.00 | 0.00 | 0.00 | 17 | 1007.7 |
| 20260502015133 | 31 | 256 | 0.0 | 0.0 | 0.00 | 0.00 | 0.00 | 17 | 1007.7 |
| 20260502015035 | 31 | 256 | 0.0 | 0.0 | 0.00 | 0.00 | 0.00 | 17 | 1007.8 |
| 20260502014920 | 31 | 256 | 0.0 | 0.0 | 0.00 | 0.00 | 0.00 | 17 | 1007.8 |
| 20260502014829 | 31 | 256 | 0.0 | 0.0 | 0.00 | 0.00 | 0.00 | 17 | 1007.7 |
| 20260502014730 | 31 | 256 | 0.0 | 0.0 | 0.00 | 0.00 | 0.00 | 17 | 1007.7 |
| 20260502014639 | 31 | 256 | 0.0 | 0.0 | 0.00 | 0.00 | 0.00 | 17 | 1007.7 |
| 20260502014521 | 31 | 256 | 0.0 | 0.0 | 0.00 | 0.00 | 0.00 | 17 | 1007.6 |
| 20260502014450 | 31 | 256 | 0.0 | 0.0 | 0.00 | 0.00 | 0.00 | 17 | 1007.6 |
| 20260502014331 | 31 | 256 | 0.0 | 0.0 | 0.00 | 0.00 | 0.00 | 17 | 1007.7 |
| 20260502014217 | 31 | 256 | 0.0 | 0.0 | 0.00 | 0.00 | 0.00 | 17 | 1007.7 |
| 20260502014119 | 31 | 256 | 0.0 | 0.0 | 0.00 | 0.00 | 0.00 | 17 | 1007.6 |
| 20260502014029 | 31 | 256 | 0.0 | 0.0 | 0.00 | 0.00 | 0.00 | 18 | 1007.6 |
| 20260502013932 | 31 | 256 | 0.0 | 0.0 | 0.00 | 0.00 | 0.00 | 17 | 1007.6 |
| 20260502013841 | 31 | 256 | 0.0 | 0.0 | 0.00 | 0.00 | 0.00 | 18 | 1007.6 |
| 20260502013744 | 31 | 256 | 0.0 | 0.0 | 0.00 | 0.00 | 0.00 | 17 | 1007.7 |
| 20260502013625 | 31 | 256 | 0.0 | 0.0 | 0.00 | 0.00 | 0.00 | 17 | 1007.7 |
| 20260502013539 | 31 | 256 | 0.0 | 0.0 | 0.00 | 0.00 | 0.00 | 18 | 1007.7 |
| 20260502013422 | 31 | 256 | 0.0 | 0.0 | 0.00 | 0.00 | 0.00 | 17 | 1007.8 |
| 20260502013324 | 31 | 256 | 0.0 | 0.0 | 0.00 | 0.00 | 0.00 | 17 | 1007.7 |
| 20260502013233 | 31 | 256 | 0.0 | 0.0 | 0.00 | 0.00 | 0.00 | 17 | 1007.7 |
| 20260502013134 | 31 | 256 | 0.0 | 0.0 | 0.00 | 0.00 | 0.00 | 17 | 1007.6 |
| 20260502013016 | 31 | 256 | 0.0 | 0.0 | 0.00 | 0.00 | 0.00 | 17 | 1007.6 |
| 20260502012929 | 31 | 256 | 0.0 | 0.0 | 0.00 | 0.00 | 0.00 | 17 | 1007.7 |
| 20260502012832 | 31 | 256 | 0.0 | 0.0 | 0.00 | 0.00 | 0.00 | 17 | 1007.6 |
| 20260502012742 | 31 | 256 | 0.0 | 0.0 | 0.00 | 0.00 | 0.00 | 17 | 1007.6 |
| 20260502012643 | 31 | 256 | 0.0 | 0.0 | 0.00 | 0.00 | 0.00 | 17 | 1007.6 |
| 20260502012525 | 31 | 256 | 0.0 | 0.0 | 0.00 | 0.00 | 0.00 | 17 | 1007.6 |
| 20260502012434 | 31 | 256 | 0.0 | 0.0 | 0.00 | 0.00 | 0.00 | 17 | 1007.6 |
| 20260502012320 | 31 | 256 | 0.0 | 0.0 | 0.00 | 0.00 | 0.00 | 17 | 1007.6 |
| 20260502012222 | 31 | 256 | 0.0 | 0.0 | 0.00 | 0.00 | 0.00 | 17 | 1007.6 |
| 20260502012132 | 31 | 256 | 0.0 | 0.0 | 0.00 | 0.00 | 0.00 | 17 | 1007.6 |
| 20260502012034 | 31 | 256 | 0.0 | 0.0 | 0.00 | 0.00 | 0.00 | 17 | 1007.6 |
| 20260502011935 | 31 | 256 | 0.0 | 1.6 | 0.00 | 0.00 | 0.00 | 17 | 1007.6 |
| 20260502011817 | 31 | 256 | 0.0 | 1.6 | 0.00 | 0.00 | 0.00 | 17 | 1007.7 |
| 20260502011730 | 31 | 256 | 0.0 | 1.6 | 0.00 | 0.00 | 0.00 | 17 | 1007.7 |
| 20260502011633 | 31 | 256 | 0.0 | 1.6 | 0.00 | 0.00 | 0.00 | 17 | 1007.7 |
| 20260502011516 | 31 | 257 | 0.0 | 1.6 | 0.00 | 0.00 | 0.00 | 17 | 1007.7 |
| 20260502011425 | 31 | 257 | 0.0 | 1.6 | 0.00 | 0.00 | 0.00 | 18 | 1007.8 |
| 20260502011347 | 31 | 257 | 0.0 | 1.6 | 0.00 | 0.00 | 0.00 | 18 | 1007.8 |
| 20260502011237 | 31 | 257 | 0.0 | 1.6 | 0.00 | 0.00 | 0.00 | 17 | 1007.8 |
| 20260502011118 | 31 | 259 | 0.0 | 1.6 | 0.00 | 0.00 | 0.00 | 17 | 1007.8 |
| 20260502011025 | 32 | 259 | 0.0 | 1.6 | 0.00 | 0.00 | 0.00 | 17 | 1007.8 |
| 20260502010933 | 32 | 259 | 0.0 | 0.0 | 0.00 | 0.00 | 0.00 | 17 | 1007.8 |
| 20260502010833 | 32 | 259 | 0.0 | 0.0 | 0.00 | 0.00 | 0.00 | 17 | 1007.8 |
| 20260502010741 | 32 | 259 | 0.0 | 0.0 | 0.00 | 0.00 | 0.00 | 17 | 1007.8 |
| 20260502010623 | 32 | 259 | 0.0 | 0.0 | 0.00 | 0.00 | 0.00 | 18 | 1007.8 |
| 20260502010545 | 32 | 258 | 0.0 | 0.0 | 0.00 | 0.00 | 0.00 | 18 | 1007.8 |
| 20260502010433 | 32 | 258 | 0.0 | 0.0 | 0.00 | 0.00 | 0.00 | 18 | 1007.8 |
| 20260502010319 | 32 | 258 | 0.0 | 0.0 | 0.00 | 0.00 | 0.00 | 18 | 1007.8 |
| 20260502010219 | 32 | 258 | 0.0 | 0.0 | 0.00 | 0.00 | 0.00 | 17 | 1007.8 |
| 20260502010129 | 32 | 258 | 0.0 | 0.0 | 0.00 | 0.00 | 0.00 | 17 | 1007.8 |
| 20260502010111 | 32 | 258 | 0.0 | 0.0 | 0.00 | 0.00 | 0.00 | 17 | 1007.8 |
| 20260502005919 | 32 | 258 | 0.0 | 0.0 | 0.00 | 0.00 | 0.00 | 17 | 1007.7 |
| 20260502005818 | 32 | 258 | 0.0 | 0.0 | 0.00 | 0.00 | 0.00 | 17 | 1007.7 |
| 20260502005727 | 32 | 258 | 0.0 | 0.0 | 0.00 | 0.00 | 0.00 | 17 | 1007.8 |
| 20260502005634 | 32 | 258 | 0.0 | 0.0 | 0.00 | 0.00 | 0.00 | 17 | 1007.7 |
| 20260502005516 | 32 | 258 | 0.0 | 0.0 | 0.00 | 0.00 | 0.00 | 17 | 1007.8 |
| 20260502005445 | 32 | 258 | 0.0 | 0.0 | 0.00 | 0.00 | 0.00 | 18 | 1007.7 |
| 20260502005327 | 32 | 258 | 0.0 | 0.0 | 0.00 | 0.00 | 0.00 | 17 | 1007.7 |
| 20260502005234 | 32 | 258 | 0.0 | 1.6 | 0.00 | 0.00 | 0.00 | 17 | 1007.7 |
| 20260502005115 | 32 | 258 | 0.0 | 4.8 | 0.00 | 0.00 | 0.00 | 17 | 1007.7 |
| 20260502005022 | 32 | 258 | 0.0 | 4.8 | 0.00 | 0.00 | 0.00 | 17 | 1007.7 |
| 20260502004951 | 32 | 258 | 0.0 | 4.8 | 0.00 | 0.00 | 0.00 | 17 | 1007.7 |
| 20260502004833 | 32 | 258 | 0.0 | 4.8 | 0.00 | 0.00 | 0.00 | 17 | 1007.7 |
| 20260502004741 | 32 | 258 | 0.0 | 4.8 | 0.00 | 0.00 | 0.00 | 17 | 1007.8 |
| 20260502004624 | 32 | 305 | 0.0 | 6.4 | 0.00 | 0.00 | 0.00 | 17 | 1007.8 |
| 20260502004526 | 32 | 305 | 0.0 | 6.4 | 0.00 | 0.00 | 0.00 | 17 | 1007.8 |
| 20260502004436 | 32 | 221 | 1.6 | 6.4 | 0.00 | 0.00 | 0.00 | 17 | 1007.8 |
| 20260502004322 | 32 | 221 | 0.0 | 6.4 | 0.00 | 0.00 | 0.00 | 18 | 1007.8 |
| 20260502004225 | 32 | 223 | 0.0 | 6.4 | 0.00 | 0.00 | 0.00 | 17 | 1007.8 |
| 20260502004132 | 32 | 224 | 0.0 | 6.4 | 0.00 | 0.00 | 0.00 | 17 | 1007.9 |
| 20260502004035 | 32 | 224 | 0.0 | 6.4 | 0.00 | 0.00 | 0.00 | 17 | 1007.8 |
| 20260502003916 | 32 | 234 | 0.0 | 6.4 | 0.00 | 0.00 | 0.00 | 18 | 1007.8 |
| 20260502003847 | 32 | 233 | 0.0 | 0.0 | 0.00 | 0.00 | 0.00 | 17 | 1007.8 |
| 20260502003727 | 32 | 234 | 0.0 | 0.0 | 0.00 | 0.00 | 0.00 | 18 | 1007.7 |
| 20260502003621 | 32 | 233 | 0.0 | 0.0 | 0.00 | 0.00 | 0.00 | 17 | 1007.8 |
| 20260502003524 | 32 | 233 | 0.0 | 0.0 | 0.00 | 0.00 | 0.00 | 17 | 1007.8 |
| 20260502003427 | 32 | 233 | 0.0 | 0.0 | 0.00 | 0.00 | 0.00 | 17 | 1007.9 |
| 20260502003337 | 32 | 233 | 0.0 | 0.0 | 0.00 | 0.00 | 0.00 | 18 | 1007.9 |
| 20260502003240 | 32 | 234 | 0.0 | 0.0 | 0.00 | 0.00 | 0.00 | 18 | 1007.8 |
| 20260502003122 | 32 | 234 | 0.0 | 0.0 | 0.00 | 0.00 | 0.00 | 18 | 1007.8 |
| 20260502003054 | 32 | 234 | 0.0 | 0.0 | 0.00 | 0.00 | 0.00 | 18 | 1007.7 |
| 20260502002935 | 32 | 234 | 0.0 | 0.0 | 0.00 | 0.00 | 0.00 | 18 | 1007.8 |
| 20260502002845 | 32 | 234 | 0.0 | 0.0 | 0.00 | 0.00 | 0.00 | 18 | 1007.8 |
| 20260502002725 | 32 | 234 | 0.0 | 0.0 | 0.00 | 0.00 | 0.00 | 18 | 1007.8 |
| 20260502002634 | 32 | 234 | 0.0 | 0.0 | 0.00 | 0.00 | 0.00 | 18 | 1007.8 |
| 20260502002536 | 32 | 234 | 0.0 | 0.0 | 0.00 | 0.00 | 0.00 | 18 | 1007.7 |
| 20260502002417 | 32 | 233 | 0.0 | 0.0 | 0.00 | 0.00 | 0.00 | 18 | 1007.8 |
| 20260502002332 | 32 | 233 | 0.0 | 0.0 | 0.00 | 0.00 | 0.00 | 18 | 1007.8 |
| 20260502002232 | 32 | 233 | 0.0 | 9.7 | 0.00 | 0.00 | 0.00 | 18 | 1007.8 |
| 20260502002142 | 32 | 233 | 0.0 | 11.3 | 0.00 | 0.00 | 0.00 | 18 | 1007.8 |
| 20260502002025 | 32 | 233 | 0.0 | 11.3 | 0.00 | 0.00 | 0.00 | 18 | 1007.8 |
| 20260502001954 | 32 | 233 | 0.0 | 11.3 | 0.00 | 0.00 | 0.00 | 20 | 1007.7 |
| 20260502001833 | 32 | 233 | 0.0 | 11.3 | 0.00 | 0.00 | 0.00 | 18 | 1007.8 |
| 20260502001739 | 32 | 233 | 0.0 | 11.3 | 0.00 | 0.00 | 0.00 | 18 | 1007.8 |
| 20260502001625 | 32 | 233 | 0.0 | 11.3 | 0.00 | 0.00 | 0.00 | 18 | 1008.0 |
| 20260502001554 | 32 | 233 | 0.0 | 11.3 | 0.00 | 0.00 | 0.00 | 18 | 1008.0 |
| 20260502001416 | 32 | 233 | 3.2 | 11.3 | 0.00 | 0.00 | 0.00 | 18 | 1007.9 |
| 20260502001318 | 32 | 231 | 3.2 | 11.3 | 0.00 | 0.00 | 0.00 | 19 | 1008.0 |
| 20260502001228 | 32 | 266 | 0.0 | 3.2 | 0.00 | 0.00 | 0.00 | 20 | 1008.0 |
| 20260502001136 | 32 | 264 | 0.0 | 4.8 | 0.00 | 0.00 | 0.00 | 20 | 1008.0 |
| 20260502001038 | 32 | 264 | 0.0 | 4.8 | 0.00 | 0.00 | 0.00 | 20 | 1007.9 |
| 20260502000918 | 32 | 264 | 0.0 | 11.3 | 0.00 | 0.00 | 0.00 | 20 | 1007.9 |
| 20260502000832 | 32 | 264 | 0.0 | 11.3 | 0.00 | 0.00 | 0.00 | 20 | 1007.8 |
| 20260502000735 | 32 | 264 | 0.0 | 11.3 | 0.00 | 0.00 | 0.00 | 20 | 1007.8 |
| 20260502000618 | 32 | 264 | 0.0 | 11.3 | 0.00 | 0.00 | 0.00 | 20 | 1007.8 |
| 20260502000520 | 32 | 264 | 0.0 | 11.3 | 0.00 | 0.00 | 0.00 | 19 | 1007.9 |
| 20260502000428 | 32 | 263 | 0.0 | 11.3 | 0.00 | 0.00 | 0.00 | 19 | 1008.0 |
| 20260502000332 | 32 | 263 | 1.6 | 11.3 | 0.00 | 0.00 | 0.00 | 19 | 1007.9 |
| 20260502000221 | 32 | 264 | 3.2 | 11.3 | 0.00 | 0.00 | 0.00 | 18 | 1008.0 |
| 20260502000129 | 32 | 266 | 3.2 | 11.3 | 0.00 | 0.00 | 0.00 | 19 | 1008.0 |
| 20260502000045 | 32 | 271 | 1.6 | 9.7 | 0.00 | 0.00 | 0.00 | 19 | 1008.0 |
| 20260501235916 | 32 | 276 | 1.6 | 9.7 | 0.00 | 0.00 | 0.00 | 19 | 1007.9 |
| 20260501235846 | 32 | 277 | 3.2 | 9.7 | 0.00 | 0.00 | 0.00 | 19 | 1007.9 |
| 20260501235754 | 32 | 278 | 3.2 | 9.7 | 0.00 | 0.00 | 0.00 | 19 | 1007.8 |
| 20260501235615 | 32 | 284 | 1.6 | 9.7 | 0.00 | 0.00 | 0.00 | 19 | 1007.8 |
| 20260501235538 | 32 | 288 | 1.6 | 9.7 | 0.00 | 0.00 | 0.00 | 19 | 1007.8 |
| 20260501235431 | 32 | 288 | 3.2 | 9.7 | 0.00 | 0.00 | 0.00 | 19 | 1007.9 |
| 20260501235353 | 32 | 289 | 4.8 | 9.7 | 0.00 | 0.00 | 0.00 | 19 | 1008.0 |
| 20260501235241 | 32 | 294 | 3.2 | 9.7 | 0.00 | 0.00 | 0.00 | 19 | 1008.0 |
| 20260501235122 | 32 | 297 | 1.6 | 9.7 | 0.00 | 0.00 | 0.00 | 19 | 1008.0 |
| 20260501235025 | 32 | 304 | 1.6 | 9.7 | 0.00 | 0.00 | 0.00 | 19 | 1008.0 |
| 20260501234927 | 32 | 304 | 3.2 | 9.7 | 0.00 | 0.00 | 0.00 | 18 | 1008.0 |
| 20260501234819 | 32 | 304 | 3.2 | 9.7 | 0.00 | 0.00 | 0.00 | 18 | 1008.1 |
| 20260501234720 | 32 | 306 | 4.8 | 9.7 | 0.00 | 0.00 | 0.00 | 18 | 1008.1 |
| 20260501234630 | 32 | 307 | 4.8 | 8.0 | 0.00 | 0.00 | 0.00 | 18 | 1008.1 |
| 20260501234533 | 32 | 308 | 1.6 | 8.0 | 0.00 | 0.00 | 0.00 | 19 | 1008.0 |
| 20260501234503 | 32 | 314 | 0.0 | 8.0 | 0.00 | 0.00 | 0.00 | 19 | 1008.0 |
| 20260501234324 | 32 | 314 | 3.2 | 9.7 | 0.00 | 0.00 | 0.00 | 18 | 1008.0 |
| 20260501234227 | 32 | 314 | 3.2 | 9.7 | 0.00 | 0.00 | 0.00 | 18 | 1008.0 |
| 20260501234133 | 32 | 317 | 1.6 | 9.7 | 0.00 | 0.00 | 0.00 | 19 | 1007.9 |
| 20260501234042 | 32 | 319 | 0.0 | 9.7 | 0.00 | 0.00 | 0.00 | 19 | 1008.0 |
| 20260501233924 | 32 | 320 | 0.0 | 9.7 | 0.00 | 0.00 | 0.00 | 19 | 1008.0 |
| 20260501233827 | 32 | 320 | 1.6 | 9.7 | 0.00 | 0.00 | 0.00 | 19 | 1008.0 |
| 20260501233737 | 32 | 321 | 3.2 | 9.7 | 0.00 | 0.00 | 0.00 | 20 | 1008.0 |
| 20260501233623 | 32 | 320 | 3.2 | 9.7 | 0.00 | 0.00 | 0.00 | 22 | 1008.0 |
| 20260501233527 | 32 | 307 | 3.2 | 9.7 | 0.00 | 0.00 | 0.00 | 19 | 1008.0 |
| 20260501233429 | 32 | 335 | 3.2 | 9.7 | 0.00 | 0.00 | 0.00 | 20 | 1008.0 |
| 20260501233338 | 32 | 232 | 1.6 | 8.0 | 0.00 | 0.00 | 0.00 | 20 | 1008.0 |
| 20260501233221 | 32 | 250 | 1.6 | 8.0 | 0.00 | 0.00 | 0.00 | 19 | 1008.0 |
| 20260501233124 | 32 | 250 | 1.6 | 11.3 | 0.00 | 0.00 | 0.00 | 19 | 1008.0 |
| 20260501233053 | 32 | 245 | 0.0 | 11.3 | 0.00 | 0.00 | 0.00 | 19 | 1008.0 |
| 20260501232937 | 32 | 248 | 0.0 | 11.3 | 0.00 | 0.00 | 0.00 | 20 | 1008.0 |
| 20260501232818 | 32 | 248 | 1.6 | 11.3 | 0.00 | 0.00 | 0.00 | 20 | 1008.0 |
| 20260501232745 | 32 | 243 | 1.6 | 11.3 | 0.00 | 0.00 | 0.00 | 19 | 1008.0 |
| 20260501232653 | 32 | 243 | 3.2 | 11.3 | 0.00 | 0.00 | 0.00 | 19 | 1008.0 |
| 20260501232533 | 32 | 239 | 1.6 | 11.3 | 0.00 | 0.00 | 0.00 | 19 | 1008.1 |
| 20260501232503 | 32 | 278 | 1.6 | 11.3 | 0.00 | 0.00 | 0.00 | 19 | 1008.2 |
| 20260501232324 | 32 | 277 | 3.2 | 11.3 | 0.00 | 0.00 | 0.00 | 19 | 1008.1 |
| 20260501232229 | 32 | 284 | 3.2 | 11.3 | 0.00 | 0.00 | 0.00 | 19 | 1008.3 |
| 20260501232138 | 32 | 224 | 1.6 | 9.7 | 0.00 | 0.00 | 0.00 | 19 | 1008.1 |
| 20260501232047 | 32 | 224 | 0.0 | 9.7 | 0.00 | 0.00 | 0.00 | 20 | 1008.2 |
| 20260501231948 | 32 | 224 | 0.0 | 11.3 | 0.00 | 0.00 | 0.00 | 19 | 1008.3 |
| 20260501231856 | 32 | 264 | 1.6 | 11.3 | 0.00 | 0.00 | 0.00 | 20 | 1008.2 |
| 20260501231804 | 31 | 265 | 3.2 | 11.3 | 0.00 | 0.00 | 0.00 | 20 | 1008.2 |
| 20260501231623 | 31 | 262 | 1.6 | 11.3 | 0.00 | 0.00 | 0.00 | 20 | 1008.2 |
| 20260501231525 | 31 | 217 | 0.0 | 11.3 | 0.00 | 0.00 | 0.00 | 20 | 1008.2 |
| 20260501231454 | 31 | 252 | 0.0 | 11.3 | 0.00 | 0.00 | 0.00 | 19 | 1008.2 |
| 20260501231325 | 31 | 252 | 0.0 | 11.3 | 0.00 | 0.00 | 0.00 | 21 | 1008.1 |
| 20260501231227 | 31 | 252 | 3.2 | 11.3 | 0.00 | 0.00 | 0.00 | 20 | 1008.2 |
| 20260501231137 | 31 | 252 | 3.2 | 11.3 | 0.00 | 0.00 | 0.00 | 20 | 1008.2 |
| 20260501231019 | 31 | 248 | 3.2 | 11.3 | 0.00 | 0.00 | 0.00 | 19 | 1008.2 |
| 20260501230922 | 31 | 249 | 4.8 | 11.3 | 0.00 | 0.00 | 0.00 | 19 | 1008.2 |
| 20260501230825 | 31 | 229 | 4.8 | 12.9 | 0.00 | 0.00 | 0.00 | 19 | 1008.2 |
| 20260501230733 | 32 | 222 | 6.4 | 12.9 | 0.00 | 0.00 | 0.00 | 20 | 1008.2 |
| 20260501230619 | 32 | 238 | 4.8 | 12.9 | 0.00 | 0.00 | 0.00 | 20 | 1008.2 |
| 20260501230548 | 31 | 282 | 3.2 | 12.9 | 0.00 | 0.00 | 0.00 | 20 | 1008.2 |
| 20260501230430 | 31 | 285 | 0.0 | 12.9 | 0.00 | 0.00 | 0.00 | 20 | 1008.3 |
| 20260501230332 | 31 | 285 | 0.0 | 12.9 | 0.00 | 0.00 | 0.00 | 21 | 1008.3 |
| 20260501230240 | 31 | 285 | 1.6 | 12.9 | 0.00 | 0.00 | 0.00 | 22 | 1008.4 |
| 20260501230122 | 32 | 278 | 4.8 | 12.9 | 0.00 | 0.00 | 0.00 | 20 | 1008.3 |
| 20260501230039 | 32 | 248 | 6.4 | 12.9 | 0.00 | 0.00 | 0.00 | 20 | 1008.4 |
| 20260501225916 | 32 | 269 | 4.8 | 12.9 | 0.00 | 0.00 | 0.00 | 20 | 1008.5 |
| 20260501225818 | 32 | 278 | 3.2 | 12.9 | 0.00 | 0.00 | 0.00 | 20 | 1008.4 |
| 20260501225748 | 32 | 335 | 1.6 | 12.9 | 0.00 | 0.00 | 0.00 | 21 | 1008.4 |
| 20260501225630 | 32 | 300 | 1.6 | 12.9 | 0.00 | 0.00 | 0.00 | 20 | 1008.4 |
| 20260501225533 | 32 | 265 | 3.2 | 12.9 | 0.00 | 0.00 | 0.00 | 20 | 1008.4 |
| 20260501225419 | 32 | 289 | 6.4 | 12.9 | 0.00 | 0.00 | 0.00 | 20 | 1008.4 |
| 20260501225329 | 32 | 246 | 6.4 | 12.9 | 0.00 | 0.00 | 0.00 | 20 | 1008.4 |
| 20260501225231 | 32 | 259 | 4.8 | 12.9 | 0.00 | 0.00 | 0.00 | 20 | 1008.3 |
| 20260501225141 | 32 | 238 | 3.2 | 11.3 | 0.00 | 0.00 | 0.00 | 20 | 1008.4 |
| 20260501225022 | 32 | 234 | 1.6 | 6.4 | 0.00 | 0.00 | 0.00 | 20 | 1008.4 |
| 20260501224923 | 32 | 243 | 0.0 | 6.4 | 0.00 | 0.00 | 0.00 | 20 | 1008.4 |
| 20260501224832 | 32 | 243 | 0.0 | 6.4 | 0.00 | 0.00 | 0.00 | 21 | 1008.4 |
| 20260501224718 | 32 | 243 | 0.0 | 6.4 | 0.00 | 0.00 | 0.00 | 21 | 1008.4 |
| 20260501224641 | 31 | 243 | 0.0 | 6.4 | 0.00 | 0.00 | 0.00 | 21 | 1008.5 |
| 20260501224528 | 31 | 241 | 0.0 | 12.9 | 0.00 | 0.00 | 0.00 | 20 | 1008.5 |
| 20260501224438 | 31 | 241 | 1.6 | 14.5 | 0.00 | 0.00 | 0.00 | 20 | 1008.6 |
| 20260501224317 | 31 | 241 | 1.6 | 14.5 | 0.00 | 0.00 | 0.00 | 20 | 1008.6 |
| 20260501224220 | 31 | 235 | 1.6 | 14.5 | 0.00 | 0.00 | 0.00 | 20 | 1008.7 |
| 20260501224130 | 31 | 246 | 1.6 | 14.5 | 0.00 | 0.00 | 0.00 | 20 | 1008.6 |
| 20260501224017 | 31 | 288 | 0.0 | 14.5 | 0.00 | 0.00 | 0.00 | 20 | 1008.6 |
| 20260501223919 | 32 | 287 | 1.6 | 14.5 | 0.00 | 0.00 | 0.00 | 20 | 1008.7 |
| 20260501223822 | 32 | 287 | 4.8 | 14.5 | 0.00 | 0.00 | 0.00 | 20 | 1008.7 |
| 20260501223730 | 32 | 305 | 9.7 | 14.5 | 0.00 | 0.00 | 0.00 | 20 | 1008.7 |
| 20260501223632 | 32 | 250 | 8.0 | 14.5 | 0.00 | 0.00 | 0.00 | 19 | 1008.7 |
| 20260501223519 | 32 | 273 | 1.6 | 12.9 | 0.00 | 0.00 | 0.00 | 20 | 1008.7 |
| 20260501223427 | 31 | 300 | 1.6 | 12.9 | 0.00 | 0.00 | 0.00 | 21 | 1008.7 |
| 20260501223329 | 31 | 288 | 1.6 | 12.9 | 0.00 | 0.00 | 0.00 | 21 | 1008.7 |
| 20260501223237 | 31 | 280 | 1.6 | 12.9 | 0.00 | 0.00 | 0.00 | 22 | 1008.7 |
| 20260501223121 | 31 | 234 | 1.6 | 14.5 | 0.00 | 0.00 | 0.00 | 21 | 1008.7 |
| 20260501223022 | 31 | 234 | 3.2 | 14.5 | 0.00 | 0.00 | 0.00 | 21 | 1008.7 |
| 20260501222930 | 31 | 236 | 4.8 | 14.5 | 0.00 | 0.00 | 0.00 | 20 | 1008.7 |
| 20260501222817 | 31 | 230 | 6.4 | 14.5 | 0.00 | 0.00 | 0.00 | 20 | 1008.7 |
| 20260501222719 | 31 | 248 | 4.8 | 14.5 | 0.00 | 0.00 | 0.00 | 20 | 1008.7 |
| 20260501222648 | 31 | 217 | 4.8 | 14.5 | 0.00 | 0.00 | 0.00 | 20 | 1008.8 |
| 20260501222529 | 31 | 224 | 4.8 | 14.5 | 0.00 | 0.00 | 0.00 | 20 | 1008.8 |
| 20260501222438 | 31 | 224 | 6.4 | 14.5 | 0.00 | 0.00 | 0.00 | 20 | 1008.7 |
| 20260501222322 | 31 | 252 | 6.4 | 14.5 | 0.00 | 0.00 | 0.00 | 19 | 1008.8 |
| 20260501222221 | 31 | 238 | 6.4 | 14.5 | 0.00 | 0.00 | 0.00 | 18 | 1008.7 |
| 20260501222131 | 31 | 259 | 4.8 | 14.5 | 0.00 | 0.00 | 0.00 | 17 | 1008.8 |
| 20260501222033 | 31 | 250 | 4.8 | 14.5 | 0.00 | 0.00 | 0.00 | 17 | 1008.9 |
| 20260501221942 | 31 | 221 | 4.8 | 14.5 | 0.00 | 0.00 | 0.00 | 18 | 1008.8 |
| 20260501221824 | 31 | 271 | 3.2 | 14.5 | 0.00 | 0.00 | 0.00 | 20 | 1008.8 |
| 20260501221730 | 31 | 216 | 3.2 | 14.5 | 0.00 | 0.00 | 0.00 | 20 | 1008.9 |
| 20260501221632 | 31 | 213 | 6.4 | 17.7 | 0.00 | 0.00 | 0.00 | 20 | 1009.0 |
| 20260501221541 | 31 | 250 | 4.8 | 17.7 | 0.00 | 0.00 | 0.00 | 21 | 1009.0 |
| 20260501221443 | 31 | 238 | 1.6 | 17.7 | 0.00 | 0.00 | 0.00 | 21 | 1008.9 |
| 20260501221335 | 31 | 238 | 1.6 | 17.7 | 0.00 | 0.00 | 0.00 | 21 | 1009.0 |
| 20260501221225 | 31 | 241 | 1.6 | 17.7 | 0.00 | 0.00 | 0.00 | 21 | 1009.0 |
| 20260501221127 | 31 | 239 | 3.2 | 17.7 | 0.00 | 0.00 | 0.00 | 21 | 1008.9 |
| 20260501221037 | 31 | 283 | 6.4 | 17.7 | 0.00 | 0.00 | 0.00 | 21 | 1008.9 |
| 20260501220938 | 31 | 233 | 8.0 | 17.7 | 0.00 | 0.00 | 0.00 | 21 | 1008.9 |
| 20260501220826 | 31 | 276 | 6.4 | 17.7 | 0.00 | 0.00 | 0.00 | 21 | 1008.9 |
| 20260501220727 | 31 | 309 | 1.6 | 12.9 | 0.00 | 0.00 | 0.00 | 21 | 1008.9 |
| 20260501220641 | 31 | 236 | 0.0 | 12.9 | 0.00 | 0.00 | 0.00 | 21 | 1008.9 |
| 20260501220523 | 31 | 235 | 3.2 | 14.5 | 0.00 | 0.00 | 0.00 | 20 | 1009.0 |
| 20260501220446 | 31 | 233 | 4.8 | 14.5 | 0.00 | 0.00 | 0.00 | 20 | 1008.9 |
| 20260501220334 | 32 | 226 | 4.8 | 14.5 | 0.00 | 0.00 | 0.00 | 20 | 1009.0 |
| 20260501220235 | 32 | 236 | 3.2 | 14.5 | 0.00 | 0.00 | 0.00 | 21 | 1009.0 |
| 20260501220117 | 31 | 224 | 3.2 | 16.1 | 0.00 | 0.00 | 0.00 | 21 | 1009.0 |
| 20260501220044 | 31 | 280 | 1.6 | 16.1 | 0.00 | 0.00 | 0.00 | 21 | 1009.0 |
| 20260501215953 | 31 | 274 | 4.8 | 16.1 | 0.00 | 0.00 | 0.00 | 22 | 1009.0 |
| 20260501215842 | 31 | 274 | 6.4 | 17.7 | 0.00 | 0.00 | 0.00 | 22 | 1009.0 |
| 20260501215744 | 31 | 233 | 4.8 | 17.7 | 0.00 | 0.00 | 0.00 | 22 | 1009.1 |
| 20260501215652 | 31 | 203 | 4.8 | 17.7 | 0.00 | 0.00 | 0.00 | 22 | 1009.2 |
| 20260501215533 | 31 | 201 | 6.4 | 17.7 | 0.00 | 0.00 | 0.00 | 22 | 1009.2 |
| 20260501215415 | 31 | 246 | 8.0 | 17.7 | 0.00 | 0.00 | 0.00 | 21 | 1009.3 |
| 20260501215330 | 31 | 245 | 6.4 | 17.7 | 0.00 | 0.00 | 0.00 | 22 | 1009.4 |
| 20260501215233 | 31 | 248 | 8.0 | 17.7 | 0.00 | 0.00 | 0.00 | 22 | 1009.3 |
| 20260501215141 | 31 | 252 | 8.0 | 17.7 | 0.00 | 0.00 | 0.00 | 22 | 1009.2 |
| 20260501215024 | 31 | 266 | 3.2 | 16.1 | 0.00 | 0.00 | 0.00 | 23 | 1009.2 |
| 20260501214925 | 31 | 273 | 1.6 | 12.9 | 0.00 | 0.00 | 0.00 | 23 | 1009.2 |
| 20260501214833 | 31 | 278 | 4.8 | 12.9 | 0.00 | 0.00 | 0.00 | 22 | 1009.3 |
| 20260501214719 | 31 | 281 | 6.4 | 16.1 | 0.00 | 0.00 | 0.00 | 22 | 1009.2 |
| 20260501214621 | 31 | 249 | 6.4 | 16.1 | 0.00 | 0.00 | 0.00 | 23 | 1009.3 |
| 20260501214525 | 31 | 249 | 8.0 | 16.1 | 0.00 | 0.00 | 0.00 | 22 | 1009.3 |
| 20260501214433 | 31 | 202 | 8.0 | 16.1 | 0.00 | 0.00 | 0.00 | 23 | 1009.3 |
| 20260501214316 | 31 | 226 | 3.2 | 16.1 | 0.00 | 0.00 | 0.00 | 24 | 1009.3 |
| 20260501214219 | 31 | 328 | 3.2 | 16.1 | 0.00 | 0.00 | 0.00 | 23 | 1009.3 |
| 20260501214132 | 31 | 245 | 3.2 | 16.1 | 0.00 | 0.00 | 0.00 | 23 | 1009.4 |
| 20260501214034 | 31 | 239 | 3.2 | 16.1 | 0.00 | 0.00 | 0.00 | 23 | 1009.4 |
| 20260501213934 | 31 | 245 | 4.8 | 16.1 | 0.00 | 0.00 | 0.00 | 23 | 1009.5 |
| 20260501213844 | 31 | 243 | 4.8 | 16.1 | 0.00 | 0.00 | 0.00 | 23 | 1009.5 |
| 20260501213725 | 31 | 230 | 3.2 | 16.1 | 0.00 | 0.00 | 0.00 | 23 | 1009.5 |
| 20260501213655 | 31 | 230 | 4.8 | 16.1 | 0.00 | 0.00 | 0.00 | 22 | 1009.5 |
| 20260501213555 | 31 | 243 | 4.8 | 17.7 | 0.00 | 0.00 | 0.00 | 23 | 1009.6 |
| 20260501213427 | 31 | 233 | 4.8 | 20.9 | 0.00 | 0.00 | 0.00 | 23 | 1009.5 |
| 20260501213350 | 31 | 273 | 6.4 | 20.9 | 0.00 | 0.00 | 0.00 | 23 | 1009.6 |
| 20260501213239 | 31 | 281 | 9.7 | 20.9 | 0.00 | 0.00 | 0.00 | 23 | 1009.6 |
| 20260501213122 | 31 | 270 | 6.4 | 20.9 | 0.00 | 0.00 | 0.00 | 23 | 1009.6 |
| 20260501213024 | 31 | 264 | 3.2 | 20.9 | 0.00 | 0.00 | 0.00 | 23 | 1009.5 |
| 20260501212933 | 31 | 263 | 4.8 | 20.9 | 0.00 | 0.00 | 0.00 | 23 | 1009.5 |
| 20260501212835 | 31 | 242 | 8.0 | 20.9 | 0.00 | 0.00 | 0.00 | 23 | 1009.5 |
| 20260501212721 | 31 | 203 | 6.4 | 20.9 | 0.00 | 0.00 | 0.00 | 23 | 1009.6 |
| 20260501212651 | 31 | 248 | 6.4 | 19.3 | 0.00 | 0.00 | 0.00 | 23 | 1009.5 |
| 20260501212533 | 31 | 206 | 9.7 | 19.3 | 0.00 | 0.00 | 0.00 | 23 | 1009.5 |
| 20260501212416 | 31 | 212 | 9.7 | 19.3 | 0.00 | 0.00 | 0.00 | 23 | 1009.5 |
| 20260501212345 | 31 | 227 | 6.4 | 16.1 | 0.00 | 0.00 | 0.00 | 22 | 1009.5 |
| 20260501212226 | 31 | 295 | 4.8 | 14.5 | 0.00 | 0.00 | 0.00 | 23 | 1009.5 |
| 20260501212136 | 31 | 236 | 3.2 | 12.9 | 0.00 | 0.00 | 0.00 | 24 | 1009.5 |
| 20260501212023 | 31 | 307 | 3.2 | 12.9 | 0.00 | 0.00 | 0.00 | 24 | 1009.6 |
| 20260501211925 | 31 | 290 | 1.6 | 12.9 | 0.00 | 0.00 | 0.00 | 23 | 1009.5 |
| 20260501211827 | 31 | 290 | 3.2 | 12.9 | 0.00 | 0.00 | 0.00 | 22 | 1009.6 |
| 20260501211735 | 31 | 323 | 4.8 | 12.9 | 0.00 | 0.00 | 0.00 | 23 | 1009.6 |
| 20260501211616 | 31 | 324 | 4.8 | 12.9 | 0.00 | 0.00 | 0.00 | 22 | 1009.6 |
| 20260501211527 | 31 | 330 | 3.2 | 16.1 | 0.00 | 0.00 | 0.00 | 23 | 1009.6 |
| 20260501211452 | 31 | 319 | 3.2 | 16.1 | 0.00 | 0.00 | 0.00 | 25 | 1009.5 |
| 20260501211340 | 31 | 328 | 3.2 | 16.1 | 0.00 | 0.00 | 0.00 | 24 | 1009.6 |
| 20260501211242 | 31 | 329 | 1.6 | 16.1 | 0.00 | 0.00 | 0.00 | 24 | 1009.7 |
| 20260501211130 | 31 | 289 | 0.0 | 16.1 | 0.00 | 0.00 | 0.00 | 24 | 1009.8 |
| 20260501211033 | 31 | 289 | 1.6 | 16.1 | 0.00 | 0.00 | 0.00 | 24 | 1009.8 |
| 20260501210935 | 31 | 289 | 1.6 | 17.7 | 0.00 | 0.00 | 0.00 | 22 | 1009.8 |
| 20260501210816 | 31 | 289 | 6.4 | 17.7 | 0.00 | 0.00 | 0.00 | 24 | 1009.9 |
| 20260501210730 | 31 | 283 | 6.4 | 17.7 | 0.00 | 0.00 | 0.00 | 23 | 1009.9 |
| 20260501210633 | 31 | 267 | 4.8 | 17.7 | 0.00 | 0.00 | 0.00 | 23 | 1009.9 |
| 20260501210542 | 31 | 308 | 4.8 | 17.7 | 0.00 | 0.00 | 0.00 | 24 | 1009.9 |
| 20260501210422 | 31 | 285 | 4.8 | 17.7 | 0.00 | 0.00 | 0.00 | 24 | 1009.9 |
| 20260501210326 | 31 | 259 | 3.2 | 17.7 | 0.00 | 0.00 | 0.00 | 24 | 1009.9 |
| 20260501210234 | 31 | 252 | 4.8 | 17.7 | 0.00 | 0.00 | 0.00 | 24 | 1009.9 |
| 20260501210118 | 30 | 250 | 4.8 | 17.7 | 0.00 | 0.00 | 0.00 | 24 | 1009.9 |
| 20260501210038 | 30 | 253 | 3.2 | 16.1 | 0.00 | 0.00 | 0.00 | 24 | 1009.9 |
| 20260501205928 | 30 | 255 | 4.8 | 16.1 | 0.00 | 0.00 | 0.00 | 24 | 1009.9 |
| 20260501205858 | 30 | 238 | 1.6 | 16.1 | 0.00 | 0.00 | 0.00 | 23 | 1009.9 |
| 20260501205719 | 30 | 250 | 3.2 | 16.1 | 0.00 | 0.00 | 0.00 | 22 | 1009.9 |
| 20260501205622 | 31 | 256 | 6.4 | 16.1 | 0.00 | 0.00 | 0.00 | 23 | 1009.9 |
| 20260501205524 | 31 | 274 | 9.7 | 16.1 | 0.00 | 0.00 | 0.00 | 23 | 1010.0 |
| 20260501205417 | 31 | 236 | 8.0 | 16.1 | 0.00 | 0.00 | 0.00 | 23 | 1010.0 |
| 20260501205318 | 31 | 260 | 3.2 | 9.7 | 0.00 | 0.00 | 0.00 | 22 | 1010.0 |
| 20260501205248 | 31 | 266 | 1.6 | 9.7 | 0.00 | 0.00 | 0.00 | 22 | 1010.0 |
| 20260501205130 | 31 | 223 | 0.0 | 9.7 | 0.00 | 0.00 | 0.00 | 22 | 1010.0 |
| 20260501205039 | 31 | 219 | 0.0 | 9.7 | 0.00 | 0.00 | 0.00 | 23 | 1010.0 |
| 20260501204921 | 31 | 219 | 1.6 | 9.7 | 0.00 | 0.00 | 0.00 | 22 | 1010.0 |
| 20260501204828 | 31 | 229 | 3.2 | 9.7 | 0.00 | 0.00 | 0.00 | 22 | 1010.0 |
| 20260501204757 | 31 | 227 | 1.6 | 11.3 | 0.00 | 0.00 | 0.00 | 23 | 1010.1 |
| 20260501204617 | 31 | 288 | 0.0 | 11.3 | 0.00 | 0.00 | 0.00 | 24 | 1010.1 |
| 20260501204527 | 31 | 289 | 1.6 | 11.3 | 0.00 | 0.00 | 0.00 | 23 | 1010.1 |
| 20260501204431 | 31 | 289 | 1.6 | 11.3 | 0.00 | 0.00 | 0.00 | 23 | 1010.2 |
| 20260501204339 | 31 | 284 | 3.2 | 11.3 | 0.00 | 0.00 | 0.00 | 23 | 1010.2 |
| 20260501204222 | 31 | 284 | 1.6 | 11.3 | 0.00 | 0.00 | 0.00 | 23 | 1010.2 |
| 20260501204129 | 31 | 278 | 1.6 | 11.3 | 0.00 | 0.00 | 0.00 | 23 | 1010.1 |
| 20260501204032 | 31 | 277 | 3.2 | 11.3 | 0.00 | 0.00 | 0.00 | 23 | 1010.1 |
| 20260501203941 | 31 | 285 | 4.8 | 11.3 | 0.00 | 0.00 | 0.00 | 22 | 1010.2 |
| 20260501203823 | 31 | 221 | 1.6 | 11.3 | 0.00 | 0.00 | 0.00 | 22 | 1010.1 |
| 20260501203725 | 31 | 276 | 1.6 | 16.1 | 0.00 | 0.00 | 0.00 | 22 | 1010.1 |
| 20260501203627 | 31 | 274 | 1.6 | 16.1 | 0.00 | 0.00 | 0.00 | 23 | 1010.2 |
| 20260501203521 | 31 | 253 | 0.0 | 16.1 | 0.00 | 0.00 | 0.00 | 25 | 1010.2 |
| 20260501203424 | 30 | 249 | 0.0 | 16.1 | 0.00 | 0.00 | 0.00 | 24 | 1010.2 |
| 20260501203326 | 30 | 249 | 0.0 | 16.1 | 0.00 | 0.00 | 0.00 | 25 | 1010.2 |
| 20260501203236 | 30 | 249 | 3.2 | 16.1 | 0.00 | 0.00 | 0.00 | 24 | 1010.3 |
| 20260501203118 | 30 | 255 | 6.4 | 16.1 | 0.00 | 0.00 | 0.00 | 23 | 1010.3 |
| 20260501203020 | 30 | 236 | 6.4 | 16.1 | 0.00 | 0.00 | 0.00 | 23 | 1010.3 |
| 20260501202953 | 30 | 280 | 4.8 | 16.1 | 0.00 | 0.00 | 0.00 | 24 | 1010.3 |
| 20260501202833 | 30 | 248 | 4.8 | 12.9 | 0.00 | 0.00 | 0.00 | 24 | 1010.2 |
| 20260501202735 | 30 | 248 | 4.8 | 12.9 | 0.00 | 0.00 | 0.00 | 23 | 1010.2 |
| 20260501202616 | 31 | 254 | 1.6 | 11.3 | 0.00 | 0.00 | 0.00 | 23 | 1010.1 |
| 20260501202526 | 31 | 254 | 3.2 | 11.3 | 0.00 | 0.00 | 0.00 | 23 | 1010.2 |
| 20260501202429 | 31 | 254 | 3.2 | 11.3 | 0.00 | 0.00 | 0.00 | 23 | 1010.3 |
| 20260501202315 | 31 | 261 | 1.6 | 6.4 | 0.00 | 0.00 | 0.00 | 23 | 1010.3 |
| 20260501202225 | 31 | 288 | 1.6 | 9.7 | 0.00 | 0.00 | 0.00 | 23 | 1010.2 |
| 20260501202128 | 31 | 288 | 0.0 | 9.7 | 0.00 | 0.00 | 0.00 | 23 | 1010.2 |
| 20260501202030 | 31 | 288 | 0.0 | 9.7 | 0.00 | 0.00 | 0.00 | 28 | 1010.3 |
| 20260501201940 | 31 | 321 | 1.6 | 9.7 | 0.00 | 0.00 | 0.00 | 28 | 1010.2 |
| 20260501201822 | 30 | 322 | 0.0 | 9.7 | 0.00 | 0.00 | 0.00 | 24 | 1010.3 |
| 20260501201729 | 30 | 320 | 0.0 | 9.7 | 0.00 | 0.00 | 0.00 | 24 | 1010.2 |
| 20260501201658 | 31 | 320 | 1.6 | 9.7 | 0.00 | 0.00 | 0.00 | 24 | 1010.3 |
| 20260501201540 | 31 | 320 | 3.2 | 9.7 | 0.00 | 0.00 | 0.00 | 23 | 1010.2 |
| 20260501201428 | 31 | 321 | 3.2 | 9.7 | 0.00 | 0.00 | 0.00 | 23 | 1010.3 |
| 20260501201331 | 31 | 323 | 1.6 | 8.0 | 0.00 | 0.00 | 0.00 | 24 | 1010.3 |
| 20260501201234 | 31 | 300 | 1.6 | 11.3 | 0.00 | 0.00 | 0.00 | 23 | 1010.3 |
| 20260501201121 | 31 | 198 | 1.6 | 16.1 | 0.00 | 0.00 | 0.00 | 25 | 1010.2 |
| 20260501201050 | 30 | 191 | 0.0 | 16.1 | 0.00 | 0.00 | 0.00 | 25 | 1010.3 |
| 20260501200931 | 30 | 191 | 1.6 | 16.1 | 0.00 | 0.00 | 0.00 | 24 | 1010.3 |
| 20260501200841 | 30 | 190 | 1.6 | 16.1 | 0.00 | 0.00 | 0.00 | 26 | 1010.3 |
| 20260501200723 | 30 | 184 | 1.6 | 16.1 | 0.00 | 0.00 | 0.00 | 25 | 1010.2 |
| 20260501200626 | 30 | 184 | 1.6 | 16.1 | 0.00 | 0.00 | 0.00 | 24 | 1010.3 |
| 20260501200556 | 30 | 250 | 4.8 | 16.1 | 0.00 | 0.00 | 0.00 | 24 | 1010.3 |
| 20260501200421 | 30 | 258 | 8.0 | 16.1 | 0.00 | 0.00 | 0.00 | 24 | 1010.4 |
| 20260501200324 | 30 | 273 | 4.8 | 11.3 | 0.00 | 0.00 | 0.00 | 24 | 1010.3 |
| 20260501200235 | 30 | 326 | 1.6 | 11.3 | 0.00 | 0.00 | 0.00 | 25 | 1010.3 |
| 20260501200134 | 30 | 217 | 1.6 | 11.3 | 0.00 | 0.00 | 0.00 | 25 | 1010.3 |
| 20260501200036 | 30 | 217 | 1.6 | 11.3 | 0.00 | 0.00 | 0.00 | 25 | 1010.3 |
| 20260501195924 | 30 | 221 | 1.6 | 11.3 | 0.00 | 0.00 | 0.00 | 24 | 1010.4 |
| 20260501195833 | 30 | 230 | 3.2 | 11.3 | 0.00 | 0.00 | 0.00 | 24 | 1010.4 |
| 20260501195720 | 31 | 235 | 3.2 | 11.3 | 0.00 | 0.00 | 0.00 | 24 | 1010.5 |
| 20260501195623 | 31 | 277 | 3.2 | 11.3 | 0.00 | 0.00 | 0.00 | 23 | 1010.5 |
| 20260501195553 | 31 | 278 | 3.2 | 11.3 | 0.00 | 0.00 | 0.00 | 25 | 1010.5 |
| 20260501195434 | 31 | 244 | 1.6 | 9.7 | 0.00 | 0.00 | 0.00 | 26 | 1010.5 |
| 20260501195335 | 31 | 345 | 0.0 | 8.0 | 0.00 | 0.00 | 0.00 | 28 | 1010.5 |
| 20260501195244 | 30 | 212 | 0.0 | 4.8 | 0.00 | 0.00 | 0.00 | 29 | 1010.5 |
| 20260501195130 | 30 | 212 | 0.0 | 4.8 | 0.00 | 0.00 | 0.00 | 29 | 1010.5 |
| 20260501195038 | 30 | 212 | 0.0 | 4.8 | 0.00 | 0.00 | 0.00 | 26 | 1010.5 |
| 20260501194940 | 29 | 212 | 0.0 | 6.4 | 0.00 | 0.00 | 0.00 | 28 | 1010.5 |
| 20260501194848 | 29 | 212 | 0.0 | 11.3 | 0.00 | 0.00 | 0.00 | 26 | 1010.6 |
| 20260501194728 | 29 | 212 | 0.0 | 11.3 | 0.00 | 0.00 | 0.00 | 26 | 1010.5 |
| 20260501194631 | 29 | 212 | 0.0 | 11.3 | 0.00 | 0.00 | 0.00 | 28 | 1010.5 |
| 20260501194541 | 29 | 212 | 1.6 | 11.3 | 0.00 | 0.00 | 0.00 | 25 | 1010.6 |
| 20260501194447 | 29 | 212 | 1.6 | 11.3 | 0.00 | 0.00 | 0.00 | 26 | 1010.6 |
| 20260501194336 | 30 | 212 | 0.0 | 11.3 | 0.00 | 0.00 | 0.00 | 26 | 1010.5 |
| 20260501194217 | 29 | 212 | 0.0 | 11.3 | 0.00 | 0.00 | 0.00 | 28 | 1010.7 |
| 20260501194118 | 29 | 212 | 3.2 | 11.3 | 0.00 | 0.00 | 0.00 | 26 | 1010.7 |
| 20260501194019 | 29 | 211 | 3.2 | 11.3 | 0.00 | 0.00 | 0.00 | 26 | 1010.7 |
| 20260501193930 | 29 | 209 | 1.6 | 8.0 | 0.00 | 0.00 | 0.00 | 26 | 1010.7 |
| 20260501193831 | 29 | 267 | 1.6 | 8.0 | 0.00 | 0.00 | 0.00 | 27 | 1010.8 |
| 20260501193718 | 29 | 267 | 3.2 | 8.0 | 0.00 | 0.00 | 0.00 | 26 | 1010.8 |
| 20260501193648 | 29 | 267 | 1.6 | 8.0 | 0.00 | 0.00 | 0.00 | 25 | 1010.8 |
| 20260501193529 | 30 | 267 | 0.0 | 8.0 | 0.00 | 0.00 | 0.00 | 26 | 1010.8 |
| 20260501193439 | 30 | 267 | 0.0 | 8.0 | 0.00 | 0.00 | 0.00 | 26 | 1010.8 |
| 20260501193327 | 30 | 267 | 0.0 | 8.0 | 0.00 | 0.00 | 0.00 | 26 | 1010.9 |
| 20260501193230 | 30 | 267 | 1.6 | 8.0 | 0.00 | 0.00 | 0.00 | 26 | 1010.9 |
| 20260501193116 | 30 | 267 | 3.2 | 8.0 | 0.00 | 0.00 | 0.00 | 26 | 1010.8 |
| 20260501193018 | 30 | 267 | 1.6 | 8.0 | 0.00 | 0.00 | 0.00 | 26 | 1010.8 |
| 20260501192928 | 30 | 259 | 1.6 | 8.0 | 0.00 | 0.00 | 0.00 | 30 | 1010.8 |
| 20260501192831 | 30 | 257 | 1.6 | 8.0 | 0.00 | 0.00 | 0.00 | 27 | 1010.7 |
| 20260501192733 | 30 | 254 | 1.6 | 6.4 | 0.00 | 0.00 | 0.00 | 26 | 1010.8 |
| 20260501192616 | 30 | 254 | 0.0 | 0.0 | 0.00 | 0.00 | 0.00 | 27 | 1010.7 |
| 20260501192529 | 29 | 254 | 0.0 | 0.0 | 0.00 | 0.00 | 0.00 | 28 | 1010.7 |
| 20260501192431 | 29 | 254 | 0.0 | 0.0 | 0.00 | 0.00 | 0.00 | 27 | 1010.7 |
| 20260501192340 | 29 | 254 | 0.0 | 0.0 | 0.00 | 0.00 | 0.00 | 29 | 1010.8 |
| 20260501192221 | 29 | 254 | 0.0 | 0.0 | 0.00 | 0.00 | 0.00 | 29 | 1010.8 |
| 20260501192124 | 29 | 254 | 0.0 | 0.0 | 0.00 | 0.00 | 0.00 | 27 | 1010.8 |
| 20260501192034 | 29 | 254 | 0.0 | 0.0 | 0.00 | 0.00 | 0.00 | 27 | 1010.8 |
| 20260501191920 | 29 | 254 | 0.0 | 0.0 | 0.00 | 0.00 | 0.00 | 27 | 1010.8 |
| 20260501191823 | 29 | 254 | 0.0 | 0.0 | 0.00 | 0.00 | 0.00 | 29 | 1010.8 |
| 20260501191725 | 28 | 254 | 0.0 | 0.0 | 0.00 | 0.00 | 0.00 | 31 | 1010.9 |
| 20260501191635 | 28 | 254 | 0.0 | 0.0 | 0.00 | 0.00 | 0.00 | 29 | 1011.0 |
| 20260501191518 | 28 | 254 | 0.0 | 0.0 | 0.00 | 0.00 | 0.00 | 29 | 1011.1 |
| 20260501191427 | 28 | 254 | 0.0 | 0.0 | 0.00 | 0.00 | 0.00 | 29 | 1011.1 |
| 20260501191328 | 28 | 254 | 0.0 | 0.0 | 0.00 | 0.00 | 0.00 | 28 | 1011.2 |
| 20260501191235 | 28 | 254 | 0.0 | 1.6 | 0.00 | 0.00 | 0.00 | 30 | 1011.2 |
| 20260501191145 | 28 | 254 | 0.0 | 1.6 | 0.00 | 0.00 | 0.00 | 29 | 1011.2 |
| 20260501191047 | 28 | 254 | 0.0 | 1.6 | 0.00 | 0.00 | 0.00 | 29 | 1011.3 |
| 20260501190935 | 28 | 254 | 0.0 | 1.6 | 0.00 | 0.00 | 0.00 | 27 | 1011.3 |
| 20260501190818 | 28 | 254 | 0.0 | 1.6 | 0.00 | 0.00 | 0.00 | 27 | 1011.3 |
| 20260501190742 | 29 | 254 | 0.0 | 1.6 | 0.00 | 0.00 | 0.00 | 27 | 1011.3 |
| 20260501190631 | 29 | 254 | 0.0 | 1.6 | 0.00 | 0.00 | 0.00 | 27 | 1011.2 |
| 20260501190537 | 30 | 255 | 0.0 | 9.7 | 0.00 | 0.00 | 0.00 | 26 | 1011.2 |
| 20260501190447 | 30 | 255 | 0.0 | 14.5 | 0.00 | 0.00 | 0.00 | 27 | 1011.2 |
| 20260501190328 | 30 | 253 | 0.0 | 14.5 | 0.00 | 0.00 | 0.00 | 27 | 1011.2 |
| 20260501190238 | 30 | 253 | 0.0 | 14.5 | 0.00 | 0.00 | 0.00 | 27 | 1011.3 |
| 20260501190120 | 29 | 252 | 0.0 | 14.5 | 0.00 | 0.00 | 0.00 | 30 | 1011.4 |
| 20260501190034 | 29 | 252 | 0.0 | 14.5 | 0.00 | 0.00 | 0.00 | 31 | 1011.5 |
| 20260501185936 | 28 | 252 | 0.0 | 14.5 | 0.00 | 0.00 | 0.00 | 31 | 1011.5 |
| 20260501185819 | 28 | 252 | 3.2 | 14.5 | 0.00 | 0.00 | 0.00 | 28 | 1011.4 |
| 20260501185722 | 28 | 248 | 6.4 | 14.5 | 0.00 | 0.00 | 0.00 | 27 | 1011.4 |
| 20260501185625 | 28 | 219 | 6.4 | 14.5 | 0.00 | 0.00 | 0.00 | 28 | 1011.4 |
| 20260501185535 | 28 | 231 | 3.2 | 9.7 | 0.00 | 0.00 | 0.00 | 28 | 1011.4 |
| 20260501185417 | 28 | 221 | 0.0 | 6.4 | 0.00 | 0.00 | 0.00 | 28 | 1011.4 |
| 20260501185330 | 28 | 221 | 0.0 | 9.7 | 0.00 | 0.00 | 0.00 | 28 | 1011.5 |
| 20260501185232 | 28 | 217 | 0.0 | 9.7 | 0.00 | 0.00 | 0.00 | 28 | 1011.4 |
| 20260501185134 | 28 | 217 | 0.0 | 9.7 | 0.00 | 0.00 | 0.00 | 28 | 1011.4 |
| 20260501185043 | 28 | 217 | 0.0 | 9.7 | 0.00 | 0.00 | 0.00 | 28 | 1011.4 |
| 20260501184925 | 29 | 217 | 0.0 | 9.7 | 0.00 | 0.00 | 0.00 | 29 | 1011.6 |
| 20260501184828 | 28 | 217 | 0.0 | 9.7 | 0.00 | 0.00 | 0.00 | 28 | 1011.6 |
| 20260501184734 | 28 | 210 | 1.6 | 9.7 | 0.00 | 0.00 | 0.00 | 28 | 1011.6 |
| 20260501184616 | 28 | 209 | 3.2 | 9.7 | 0.00 | 0.00 | 0.00 | 28 | 1011.6 |
| 20260501184525 | 28 | 214 | 1.6 | 9.7 | 0.00 | 0.00 | 0.00 | 28 | 1011.6 |
| 20260501184427 | 28 | 198 | 1.6 | 9.7 | 0.00 | 0.00 | 0.00 | 29 | 1011.7 |
| 20260501184336 | 28 | 198 | 1.6 | 9.7 | 0.00 | 0.00 | 0.00 | 29 | 1011.7 |
| 20260501184219 | 28 | 203 | 1.6 | 9.7 | 0.00 | 0.00 | 0.00 | 29 | 1011.7 |
| 20260501184124 | 28 | 212 | 0.0 | 9.7 | 0.00 | 0.00 | 0.00 | 29 | 1011.8 |
| 20260501184034 | 28 | 214 | 1.6 | 9.7 | 0.00 | 0.00 | 0.00 | 28 | 1011.8 |
| 20260501183937 | 28 | 215 | 4.8 | 9.7 | 0.00 | 0.00 | 0.00 | 28 | 1011.7 |
| 20260501183819 | 28 | 229 | 3.2 | 9.7 | 0.00 | 0.00 | 0.00 | 28 | 1011.8 |
| 20260501183729 | 28 | 249 | 3.2 | 9.7 | 0.00 | 0.00 | 0.00 | 30 | 1011.7 |
| 20260501183632 | 28 | 248 | 1.6 | 9.7 | 0.00 | 0.00 | 0.00 | 32 | 1011.7 |
| 20260501183517 | 27 | 248 | 1.6 | 9.7 | 0.00 | 0.00 | 0.00 | 30 | 1011.7 |
| 20260501183447 | 27 | 248 | 1.6 | 9.7 | 0.00 | 0.00 | 0.00 | 30 | 1011.7 |
| 20260501183356 | 27 | 248 | 3.2 | 9.7 | 0.00 | 0.00 | 0.00 | 29 | 1011.7 |
| 20260501183216 | 27 | 248 | 1.6 | 9.7 | 0.00 | 0.00 | 0.00 | 30 | 1011.6 |
| 20260501183118 | 27 | 234 | 0.0 | 9.7 | 0.00 | 0.00 | 0.00 | 29 | 1011.6 |
| 20260501183021 | 27 | 249 | 1.6 | 9.7 | 0.00 | 0.00 | 0.00 | 29 | 1011.8 |
| 20260501182929 | 27 | 249 | 1.6 | 9.7 | 0.00 | 0.00 | 0.00 | 29 | 1011.8 |
| 20260501182831 | 27 | 261 | 1.6 | 9.7 | 0.00 | 0.00 | 0.00 | 30 | 1011.7 |
| 20260501182716 | 27 | 25 | 0.0 | 8.0 | 0.00 | 0.00 | 0.00 | 28 | 1011.8 |
| 20260501182646 | 27 | 25 | 1.6 | 8.0 | 0.00 | 0.00 | 0.00 | 28 | 1011.9 |
| 20260501182527 | 28 | 29 | 3.2 | 8.0 | 0.00 | 0.00 | 0.00 | 29 | 1011.9 |
| 20260501182437 | 28 | 30 | 3.2 | 8.0 | 0.00 | 0.00 | 0.00 | 28 | 1012.0 |
| 20260501182319 | 28 | 40 | 1.6 | 8.0 | 0.00 | 0.00 | 0.00 | 29 | 1012.0 |
| 20260501182222 | 28 | 42 | 1.6 | 8.0 | 0.00 | 0.00 | 0.00 | 29 | 1012.0 |
| 20260501182134 | 28 | 43 | 3.2 | 8.0 | 0.00 | 0.00 | 0.00 | 28 | 1011.9 |
| 20260501182017 | 28 | 41 | 1.6 | 8.0 | 0.00 | 0.00 | 0.00 | 28 | 1011.9 |
| 20260501181918 | 28 | 44 | 1.6 | 8.0 | 0.00 | 0.00 | 0.00 | 28 | 1011.9 |
| 20260501181828 | 29 | 46 | 0.0 | 8.0 | 0.00 | 0.00 | 0.00 | 28 | 1012.0 |
| 20260501181732 | 29 | 46 | 0.0 | 8.0 | 0.00 | 0.00 | 0.00 | 31 | 1012.0 |
| 20260501181640 | 28 | 46 | 0.0 | 8.0 | 0.00 | 0.00 | 0.00 | 33 | 1011.9 |
| 20260501181541 | 28 | 46 | 1.6 | 8.0 | 0.00 | 0.00 | 0.00 | 32 | 1012.0 |
| 20260501181454 | 28 | 46 | 1.6 | 8.0 | 0.00 | 0.00 | 0.00 | 30 | 1011.9 |
| 20260501181403 | 28 | 47 | 0.0 | 8.0 | 0.00 | 0.00 | 0.00 | 29 | 1011.9 |
| 20260501181224 | 28 | 12 | 0.0 | 8.0 | 0.00 | 0.00 | 0.00 | 31 | 1011.9 |
| 20260501181126 | 28 | 12 | 0.0 | 8.0 | 0.00 | 0.00 | 0.00 | 31 | 1012.0 |
| 20260501181030 | 28 | 12 | 0.0 | 8.0 | 0.00 | 0.00 | 0.00 | 34 | 1011.9 |
| 20260501180938 | 28 | 359 | 0.0 | 8.0 | 0.00 | 0.00 | 0.00 | 32 | 1011.9 |
| 20260501180825 | 27 | 347 | 0.0 | 8.0 | 0.00 | 0.00 | 0.00 | 29 | 1011.9 |
| 20260501180732 | 28 | 353 | 0.0 | 8.0 | 0.00 | 0.00 | 0.00 | 29 | 1011.9 |
| 20260501180634 | 28 | 143 | 1.6 | 8.0 | 0.00 | 0.00 | 0.00 | 29 | 1011.9 |
| 20260501180518 | 28 | 143 | 1.6 | 8.0 | 0.00 | 0.00 | 0.00 | 30 | 1011.9 |
| 20260501180420 | 28 | 123 | 0.0 | 1.6 | 0.00 | 0.00 | 0.00 | 29 | 1012.0 |
| 20260501180330 | 28 | 126 | 0.0 | 1.6 | 0.00 | 0.00 | 0.00 | 31 | 1012.0 |
| 20260501180230 | 28 | 126 | 0.0 | 1.6 | 0.00 | 0.00 | 0.00 | 31 | 1012.0 |
| 20260501180143 | 27 | 126 | 0.0 | 3.2 | 0.00 | 0.00 | 0.00 | 31 | 1012.0 |
| 20260501180035 | 27 | 126 | 0.0 | 3.2 | 0.00 | 0.00 | 0.00 | 30 | 1012.1 |
| 20260501175933 | 27 | 126 | 0.0 | 3.2 | 0.00 | 0.00 | 0.00 | 30 | 1012.1 |
| 20260501175835 | 27 | 126 | 0.0 | 3.2 | 0.00 | 0.00 | 0.00 | 33 | 1012.1 |
| 20260501175804 | 27 | 126 | 0.0 | 4.8 | 0.00 | 0.00 | 0.00 | 33 | 1012.1 |
| 20260501175625 | 27 | 243 | 0.0 | 8.0 | 0.00 | 0.00 | 0.00 | 32 | 1012.1 |
| 20260501175528 | 27 | 256 | 0.0 | 8.0 | 0.00 | 0.00 | 0.00 | 29 | 1012.1 |
| 20260501175433 | 27 | 257 | 0.0 | 8.0 | 0.00 | 0.00 | 0.00 | 30 | 1012.2 |
| 20260501175343 | 27 | 257 | 0.0 | 8.0 | 0.00 | 0.00 | 0.00 | 29 | 1012.2 |
| 20260501175224 | 27 | 257 | 0.0 | 8.0 | 0.00 | 0.00 | 0.00 | 30 | 1012.1 |
| 20260501175126 | 27 | 257 | 0.0 | 8.0 | 0.00 | 0.00 | 0.00 | 30 | 1012.0 |
| 20260501175028 | 27 | 257 | 1.6 | 8.0 | 0.00 | 0.00 | 0.00 | 31 | 1012.0 |
| 20260501174938 | 27 | 261 | 1.6 | 8.0 | 0.00 | 0.00 | 0.00 | 30 | 1012.1 |
| 20260501174824 | 27 | 283 | 1.6 | 8.0 | 0.00 | 0.00 | 0.00 | 30 | 1012.2 |
| 20260501174732 | 27 | 284 | 1.6 | 6.4 | 0.00 | 0.00 | 0.00 | 30 | 1012.2 |
| 20260501174633 | 27 | 298 | 1.6 | 11.3 | 0.00 | 0.00 | 0.00 | 31 | 1012.2 |
| 20260501174543 | 27 | 298 | 0.0 | 11.3 | 0.00 | 0.00 | 0.00 | 33 | 1012.2 |
| 20260501174425 | 26 | 130 | 1.6 | 11.3 | 0.00 | 0.00 | 0.00 | 31 | 1012.3 |
| 20260501174327 | 26 | 130 | 1.6 | 11.3 | 0.00 | 0.00 | 0.00 | 31 | 1012.3 |
| 20260501174234 | 26 | 131 | 1.6 | 11.3 | 0.00 | 0.00 | 0.00 | 30 | 1012.4 |
| 20260501174116 | 26 | 231 | 1.6 | 11.3 | 0.00 | 0.00 | 0.00 | 31 | 1012.5 |
| 20260501174026 | 26 | 231 | 1.6 | 11.3 | 0.00 | 0.00 | 0.00 | 30 | 1012.4 |
| 20260501173929 | 26 | 231 | 1.6 | 11.3 | 0.00 | 0.00 | 0.00 | 31 | 1012.4 |
| 20260501173838 | 26 | 267 | 0.0 | 6.4 | 0.00 | 0.00 | 0.00 | 31 | 1012.3 |
| 20260501173720 | 27 | 268 | 0.0 | 6.4 | 0.00 | 0.00 | 0.00 | 31 | 1012.4 |
| 20260501173627 | 27 | 268 | 0.0 | 6.4 | 0.00 | 0.00 | 0.00 | 32 | 1012.4 |
| 20260501173536 | 26 | 268 | 0.0 | 6.4 | 0.00 | 0.00 | 0.00 | 32 | 1012.5 |
| 20260501173439 | 26 | 268 | 1.6 | 9.7 | 0.00 | 0.00 | 0.00 | 31 | 1012.5 |
| 20260501173321 | 27 | 268 | 1.6 | 9.7 | 0.00 | 0.00 | 0.00 | 30 | 1012.5 |
| 20260501173229 | 27 | 270 | 0.0 | 9.7 | 0.00 | 0.00 | 0.00 | 31 | 1012.5 |
| 20260501173138 | 27 | 271 | 0.0 | 9.7 | 0.00 | 0.00 | 0.00 | 30 | 1012.5 |
| 20260501173019 | 27 | 271 | 0.0 | 9.7 | 0.00 | 0.00 | 0.00 | 34 | 1012.5 |
| 20260501172925 | 26 | 271 | 0.0 | 9.7 | 0.00 | 0.00 | 0.00 | 34 | 1012.4 |
| 20260501172828 | 26 | 271 | 1.6 | 9.7 | 0.00 | 0.00 | 0.00 | 32 | 1012.5 |
| 20260501172738 | 26 | 271 | 3.2 | 9.7 | 0.00 | 0.00 | 0.00 | 31 | 1012.4 |
| 20260501172640 | 26 | 270 | 4.8 | 9.7 | 0.00 | 0.00 | 0.00 | 31 | 1012.4 |
| 20260501172521 | 27 | 271 | 4.8 | 9.7 | 0.00 | 0.00 | 0.00 | 30 | 1012.4 |
| 20260501172429 | 27 | 274 | 3.2 | 9.7 | 0.00 | 0.00 | 0.00 | 31 | 1012.4 |
| 20260501172316 | 27 | 274 | 1.6 | 6.4 | 0.00 | 0.00 | 0.00 | 34 | 1012.4 |
| 20260501172236 | 26 | 274 | 1.6 | 6.4 | 0.00 | 0.00 | 0.00 | 32 | 1012.4 |
| 20260501172117 | 26 | 274 | 1.6 | 6.4 | 0.00 | 0.00 | 0.00 | 31 | 1012.4 |
| 20260501172026 | 26 | 274 | 1.6 | 9.7 | 0.00 | 0.00 | 0.00 | 32 | 1012.4 |
| 20260501171944 | 26 | 274 | 1.6 | 9.7 | 0.00 | 0.00 | 0.00 | 32 | 1012.4 |
| 20260501171722 | 26 | 274 | 1.6 | 9.7 | 0.00 | 0.00 | 0.00 | 35 | 1012.4 |
| 20260501171645 | 26 | 267 | 0.0 | 9.7 | 0.00 | 0.00 | 0.00 | 36 | 1012.4 |
| 20260501171533 | 26 | 267 | 0.0 | 9.7 | 0.00 | 0.00 | 0.00 | 35 | 1012.4 |
| 20260501171435 | 26 | 267 | 0.0 | 9.7 | 0.00 | 0.00 | 0.00 | 34 | 1012.5 |
| 20260501171317 | 26 | 265 | 0.0 | 9.7 | 0.00 | 0.00 | 0.00 | 34 | 1012.5 |
| 20260501171247 | 26 | 262 | 1.6 | 9.7 | 0.00 | 0.00 | 0.00 | 33 | 1012.5 |
| 20260501171132 | 26 | 259 | 1.6 | 9.7 | 0.00 | 0.00 | 0.00 | 33 | 1012.5 |
| 20260501171102 | 26 | 257 | 1.6 | 9.7 | 0.00 | 0.00 | 0.00 | 35 | 1012.5 |
| 20260501170923 | 26 | 275 | 1.6 | 4.8 | 0.00 | 0.00 | 0.00 | 34 | 1012.5 |
| 20260501170844 | 26 | 260 | 1.6 | 4.8 | 0.00 | 0.00 | 0.00 | 33 | 1012.5 |
| 20260501170732 | 26 | 275 | 1.6 | 6.4 | 0.00 | 0.00 | 0.00 | 34 | 1012.6 |
| 20260501170702 | 25 | 276 | 0.0 | 6.4 | 0.00 | 0.00 | 0.00 | 35 | 1012.6 |
| 20260501170523 | 25 | 276 | 0.0 | 8.0 | 0.00 | 0.00 | 0.00 | 36 | 1012.6 |
| 20260501170425 | 25 | 276 | 0.0 | 8.0 | 0.00 | 0.00 | 0.00 | 34 | 1012.6 |
| 20260501170339 | 25 | 276 | 0.0 | 9.7 | 0.00 | 0.00 | 0.00 | 34 | 1012.5 |
| 20260501170219 | 25 | 276 | 0.0 | 11.3 | 0.00 | 0.00 | 0.00 | 35 | 1012.5 |
| 20260501170129 | 25 | 276 | 0.0 | 11.3 | 0.00 | 0.00 | 0.00 | 35 | 1012.5 |
| 20260501170044 | 25 | 276 | 1.6 | 11.3 | 0.00 | 0.00 | 0.00 | 33 | 1012.5 |
| 20260501165941 | 26 | 276 | 1.6 | 11.3 | 0.00 | 0.00 | 0.00 | 34 | 1012.6 |
| 20260501165823 | 26 | 278 | 1.6 | 11.3 | 0.00 | 0.00 | 0.00 | 34 | 1012.6 |
| 20260501165731 | 26 | 276 | 3.2 | 11.3 | 0.00 | 0.00 | 0.00 | 34 | 1012.6 |
| 20260501165616 | 25 | 262 | 1.6 | 11.3 | 0.00 | 0.00 | 0.00 | 34 | 1012.6 |
| 20260501165523 | 25 | 261 | 1.6 | 11.3 | 0.00 | 0.00 | 0.00 | 34 | 1012.6 |
| 20260501165425 | 25 | 274 | 0.0 | 11.3 | 0.00 | 0.00 | 0.00 | 34 | 1012.6 |
| 20260501165326 | 25 | 276 | 0.0 | 4.8 | 0.00 | 0.00 | 0.00 | 34 | 1012.6 |
| 20260501165256 | 25 | 276 | 0.0 | 4.8 | 0.00 | 0.00 | 0.00 | 34 | 1012.6 |
| 20260501165117 | 25 | 279 | 0.0 | 4.8 | 0.00 | 0.00 | 0.00 | 34 | 1012.6 |
| 20260501165019 | 25 | 279 | 0.0 | 4.8 | 0.00 | 0.00 | 0.00 | 34 | 1012.6 |
| 20260501164932 | 25 | 279 | 0.0 | 4.8 | 0.00 | 0.00 | 0.00 | 34 | 1012.6 |
| 20260501164832 | 25 | 279 | 0.0 | 4.8 | 0.00 | 0.00 | 0.00 | 35 | 1012.6 |
| 20260501164740 | 25 | 279 | 0.0 | 6.4 | 0.00 | 0.00 | 0.00 | 35 | 1012.6 |
| 20260501164642 | 25 | 279 | 0.0 | 6.4 | 0.00 | 0.00 | 0.00 | 35 | 1012.5 |
| 20260501164523 | 25 | 280 | 0.0 | 6.4 | 0.00 | 0.00 | 0.00 | 35 | 1012.5 |
| 20260501164432 | 25 | 280 | 0.0 | 6.4 | 0.00 | 0.00 | 0.00 | 34 | 1012.6 |
| 20260501164317 | 25 | 280 | 1.6 | 6.4 | 0.00 | 0.00 | 0.00 | 34 | 1012.5 |
| 20260501164247 | 25 | 280 | 1.6 | 6.4 | 0.00 | 0.00 | 0.00 | 35 | 1012.5 |
| 20260501164128 | 25 | 280 | 3.2 | 6.4 | 0.00 | 0.00 | 0.00 | 34 | 1012.5 |
| 20260501164057 | 25 | 280 | 3.2 | 6.4 | 0.00 | 0.00 | 0.00 | 34 | 1012.5 |
| 20260501163918 | 25 | 279 | 1.6 | 6.4 | 0.00 | 0.00 | 0.00 | 34 | 1012.5 |
| 20260501163821 | 25 | 279 | 0.0 | 6.4 | 0.00 | 0.00 | 0.00 | 34 | 1012.4 |
| 20260501163724 | 25 | 279 | 0.0 | 6.4 | 0.00 | 0.00 | 0.00 | 34 | 1012.5 |
| 20260501163617 | 25 | 281 | 0.0 | 8.0 | 0.00 | 0.00 | 0.00 | 35 | 1012.5 |
| 20260501163519 | 25 | 281 | 0.0 | 8.0 | 0.00 | 0.00 | 0.00 | 34 | 1012.5 |
| 20260501163320 | 25 | 281 | 1.6 | 8.0 | 0.00 | 0.00 | 0.00 | 37 | 1012.4 |
| 20260501163221 | 25 | 280 | 1.6 | 8.0 | 0.00 | 0.00 | 0.00 | 36 | 1012.5 |
| 20260501163123 | 25 | 276 | 1.6 | 8.0 | 0.00 | 0.00 | 0.00 | 36 | 1012.4 |
| 20260501163037 | 25 | 274 | 0.0 | 8.0 | 0.00 | 0.00 | 0.00 | 36 | 1012.5 |
| 20260501162940 | 25 | 274 | 1.6 | 8.0 | 0.00 | 0.00 | 0.00 | 36 | 1012.4 |
| 20260501162821 | 25 | 271 | 1.6 | 8.0 | 0.00 | 0.00 | 0.00 | 35 | 1012.5 |
| 20260501162730 | 25 | 277 | 1.6 | 9.7 | 0.00 | 0.00 | 0.00 | 36 | 1012.5 |
| 20260501162632 | 25 | 359 | 0.0 | 9.7 | 0.00 | 0.00 | 0.00 | 35 | 1012.5 |
| 20260501162541 | 25 | 177 | 1.6 | 9.7 | 0.00 | 0.00 | 0.00 | 36 | 1012.5 |
| 20260501162423 | 25 | 177 | 1.6 | 9.7 | 0.00 | 0.00 | 0.00 | 35 | 1012.5 |
| 20260501162335 | 25 | 178 | 0.0 | 9.7 | 0.00 | 0.00 | 0.00 | 35 | 1012.5 |